| time (UTC) | temp C | wind direction | speed KPH | gust KPH | rain 1hr cm | rain 24hr cm | rain mn cm | humidity % | barometer mb |
| 20260507035403 | 10 | 258 | 0.0 | 3.2 | 0.00 | 0.00 | 0.00 | 98 | 1005.1 |
| 20260507035306 | 10 | 264 | 0.0 | 3.2 | 0.00 | 0.00 | 0.00 | 98 | 1005.0 |
| 20260507035203 | 10 | 274 | 0.0 | 3.2 | 0.00 | 0.00 | 0.00 | 98 | 1005.1 |
| 20260507035103 | 9 | 289 | 0.0 | 3.2 | 0.00 | 0.00 | 0.00 | 98 | 1005.1 |
| 20260507035004 | 9 | 299 | 0.0 | 3.2 | 0.00 | 0.00 | 0.00 | 98 | 1005.1 |
| 20260507034903 | 9 | 303 | 0.0 | 3.2 | 0.00 | 0.00 | 0.00 | 98 | 1005.1 |
| 20260507034803 | 9 | 307 | 0.0 | 3.2 | 0.00 | 0.00 | 0.00 | 98 | 1005.1 |
| 20260507034704 | 9 | 308 | 0.0 | 3.2 | 0.00 | 0.00 | 0.00 | 98 | 1005.0 |
| 20260507034603 | 9 | 309 | 0.0 | 3.2 | 0.00 | 0.00 | 0.00 | 98 | 1005.2 |
| 20260507034503 | 9 | 318 | 0.0 | 3.2 | 0.00 | 0.00 | 0.00 | 98 | 1005.3 |
| 20260507034404 | 9 | 332 | 0.0 | 3.2 | 0.00 | 0.00 | 0.00 | 98 | 1005.2 |
| 20260507034303 | 9 | 336 | 0.0 | 3.2 | 0.00 | 0.00 | 0.00 | 98 | 1005.1 |
| 20260507034205 | 9 | 336 | 0.0 | 3.2 | 0.00 | 0.00 | 0.00 | 98 | 1005.1 |
| 20260507034104 | 9 | 336 | 0.0 | 3.2 | 0.00 | 0.00 | 0.00 | 98 | 1005.3 |
| 20260507034003 | 9 | 335 | 0.0 | 3.2 | 0.00 | 0.00 | 0.00 | 98 | 1005.2 |
| 20260507033903 | 9 | 335 | 0.0 | 1.6 | 0.00 | 0.00 | 0.00 | 98 | 1005.1 |
| 20260507033817 | 9 | 335 | 0.0 | 1.6 | 0.00 | 0.00 | 0.00 | 98 | 1005.1 |
| 20260507033803 | 9 | 335 | 0.0 | 1.6 | 0.00 | 0.00 | 0.00 | 98 | 1005.2 |
| 20260507033704 | 9 | 0 | 0.0 | 1.6 | 0.00 | 0.00 | 0.00 | 98 | 1005.2 |
| 20260507033619 | 9 | 0 | 0.0 | 1.6 | 0.00 | 0.00 | 0.00 | 98 | 1005.2 |
| 20260507033504 | 9 | 0 | 0.0 | 3.2 | 0.00 | 0.00 | 0.00 | 98 | 1005.3 |
| 20260507033303 | 9 | 335 | 0.0 | 3.2 | 0.00 | 0.00 | 0.00 | 98 | 1005.4 |
| 20260507033217 | 9 | 335 | 0.0 | 3.2 | 0.00 | 0.00 | 0.00 | 98 | 1005.4 |
| 20260507033203 | 9 | 335 | 0.0 | 3.2 | 0.00 | 0.00 | 0.00 | 98 | 1005.2 |
| 20260507033103 | 9 | 332 | 0.0 | 3.2 | 0.00 | 0.00 | 0.00 | 98 | 1005.4 |
| 20260507032917 | 9 | 323 | 1.6 | 3.2 | 0.00 | 0.00 | 0.00 | 98 | 1005.3 |
| 20260507032904 | 9 | 322 | 1.6 | 3.2 | 0.00 | 0.00 | 0.00 | 98 | 1005.3 |
| 20260507032819 | 9 | 321 | 1.6 | 3.2 | 0.00 | 0.00 | 0.00 | 98 | 1005.3 |
| 20260507032805 | 9 | 320 | 1.6 | 3.2 | 0.00 | 0.00 | 0.00 | 98 | 1005.3 |
| 20260507032504 | 9 | 317 | 1.6 | 3.2 | 0.00 | 0.00 | 0.00 | 98 | 1005.2 |
| 20260507032403 | 9 | 317 | 1.6 | 3.2 | 0.00 | 0.00 | 0.00 | 98 | 1005.3 |
| 20260507032306 | 9 | 319 | 1.6 | 3.2 | 0.00 | 0.00 | 0.00 | 98 | 1005.2 |
| 20260507032204 | 9 | 317 | 1.6 | 3.2 | 0.00 | 0.00 | 0.00 | 99 | 1005.2 |
| 20260507032103 | 9 | 316 | 1.6 | 3.2 | 0.00 | 0.00 | 0.00 | 99 | 1005.2 |
| 20260507032004 | 9 | 320 | 1.6 | 3.2 | 0.00 | 0.00 | 0.00 | 99 | 1005.3 |
| 20260507031903 | 9 | 332 | 1.6 | 3.2 | 0.00 | 0.00 | 0.00 | 99 | 1005.2 |
| 20260507031803 | 9 | 344 | 0.0 | 3.2 | 0.00 | 0.00 | 0.00 | 98 | 1005.2 |
| 20260507031706 | 9 | 29 | 0.0 | 3.2 | 0.00 | 0.00 | 0.00 | 99 | 1005.1 |
| 20260507031603 | 8 | 62 | 0.0 | 3.2 | 0.00 | 0.00 | 0.00 | 98 | 1005.2 |
| 20260507031521 | 8 | 74 | 0.0 | 3.2 | 0.00 | 0.00 | 0.00 | 98 | 1005.2 |
| 20260507031503 | 8 | 74 | 0.0 | 3.2 | 0.00 | 0.00 | 0.00 | 98 | 1005.0 |
| 20260507031403 | 8 | 77 | 0.0 | 3.2 | 0.00 | 0.00 | 0.00 | 98 | 1005.2 |
| 20260507031319 | 8 | 80 | 0.0 | 3.2 | 0.00 | 0.00 | 0.00 | 98 | 1005.2 |
| 20260507031203 | 8 | 82 | 0.0 | 3.2 | 0.00 | 0.00 | 0.00 | 98 | 1005.0 |
| 20260507031120 | 8 | 84 | 0.0 | 3.2 | 0.00 | 0.00 | 0.00 | 98 | 1005.0 |
| 20260507031003 | 8 | 91 | 0.0 | 3.2 | 0.00 | 0.00 | 0.00 | 98 | 1004.9 |
| 20260507030921 | 8 | 94 | 0.0 | 3.2 | 0.00 | 0.00 | 0.00 | 98 | 1004.9 |
| 20260507030819 | 8 | 100 | 0.0 | 3.2 | 0.00 | 0.00 | 0.00 | 98 | 1005.0 |
| 20260507030804 | 8 | 102 | 0.0 | 3.2 | 0.00 | 0.00 | 0.00 | 98 | 1005.0 |
| 20260507030504 | 8 | 131 | 1.6 | 3.2 | 0.00 | 0.00 | 0.00 | 98 | 1004.9 |
| 20260507030404 | 8 | 138 | 1.6 | 3.2 | 0.00 | 0.00 | 0.00 | 98 | 1005.1 |
| 20260507030304 | 8 | 145 | 0.0 | 3.2 | 0.00 | 0.00 | 0.00 | 98 | 1005.2 |
| 20260507030205 | 8 | 148 | 0.0 | 3.2 | 0.00 | 0.00 | 0.00 | 98 | 1005.2 |
| 20260507030104 | 8 | 148 | 0.0 | 3.2 | 0.00 | 0.00 | 0.00 | 98 | 1005.3 |
| 20260507025903 | 8 | 152 | 0.0 | 3.2 | 0.00 | 0.00 | 0.00 | 98 | 1005.2 |
| 20260507025804 | 8 | 157 | 0.0 | 3.2 | 0.00 | 0.00 | 0.00 | 98 | 1005.2 |
| 20260507025704 | 8 | 169 | 0.0 | 3.2 | 0.00 | 0.00 | 0.00 | 98 | 1005.3 |
| 20260507025604 | 8 | 172 | 0.0 | 3.2 | 0.00 | 0.00 | 0.00 | 98 | 1005.5 |
| 20260507025503 | 8 | 0 | 0.0 | 0.0 | 0.00 | 0.00 | 0.00 | 98 | 1005.1 |
| 20260507025404 | 8 | 0 | 0.0 | 0.0 | 0.00 | 0.00 | 0.00 | 98 | 1005.2 |
| 20260507025306 | 8 | 0 | 0.0 | 0.0 | 0.00 | 0.00 | 0.00 | 98 | 1005.1 |
| 20260507025203 | 8 | 0 | 0.0 | 0.0 | 0.00 | 0.00 | 0.00 | 98 | 1005.4 |
| 20260507025104 | 8 | 0 | 0.0 | 0.0 | 0.00 | 0.00 | 0.00 | 99 | 1005.5 |
| 20260507025004 | 8 | 0 | 0.0 | 0.0 | 0.00 | 0.00 | 0.00 | 99 | 1005.3 |
| 20260507024904 | 8 | 0 | 0.0 | 0.0 | 0.00 | 0.00 | 0.00 | 99 | 1005.3 |
| 20260507024803 | 8 | 0 | 0.0 | 0.0 | 0.00 | 0.00 | 0.00 | 99 | 1005.3 |
| 20260507024616 | 8 | 0 | 0.0 | 0.0 | 0.00 | 0.00 | 0.00 | 99 | 1005.3 |
| 20260507024604 | 8 | 0 | 0.0 | 0.0 | 0.00 | 0.00 | 0.00 | 99 | 1005.1 |
| 20260507024504 | 8 | 0 | 0.0 | 0.0 | 0.00 | 0.00 | 0.00 | 99 | 1005.2 |
| 20260507024304 | 8 | 0 | 0.0 | 0.0 | 0.00 | 0.00 | 0.00 | 99 | 1005.2 |
| 20260507024204 | 8 | 0 | 0.0 | 0.0 | 0.00 | 0.00 | 0.00 | 99 | 1005.2 |
| 20260507024104 | 8 | 0 | 0.0 | 0.0 | 0.00 | 0.00 | 0.00 | 99 | 1005.2 |
| 20260507024003 | 8 | 0 | 0.0 | 0.0 | 0.00 | 0.00 | 0.00 | 99 | 1005.2 |
| 20260507023904 | 8 | 0 | 0.0 | 0.0 | 0.00 | 0.00 | 0.00 | 99 | 1005.3 |
| 20260507023716 | 8 | 0 | 0.0 | 0.0 | 0.00 | 0.00 | 0.00 | 99 | 1005.2 |
| 20260507023703 | 8 | 0 | 0.0 | 0.0 | 0.00 | 0.00 | 0.00 | 99 | 1005.3 |
| 20260507023603 | 8 | 0 | 0.0 | 0.0 | 0.00 | 0.00 | 0.00 | 99 | 1005.2 |
| 20260507023517 | 8 | 0 | 0.0 | 0.0 | 0.00 | 0.00 | 0.00 | 99 | 1005.2 |
| 20260507023403 | 8 | 0 | 0.0 | 0.0 | 0.00 | 0.00 | 0.00 | 99 | 1005.2 |
| 20260507023203 | 8 | 0 | 0.0 | 0.0 | 0.00 | 0.00 | 0.00 | 99 | 1005.1 |
| 20260507023103 | 8 | 0 | 0.0 | 0.0 | 0.00 | 0.00 | 0.00 | 99 | 1005.2 |
| 20260507023018 | 8 | 0 | 0.0 | 0.0 | 0.00 | 0.00 | 0.00 | 99 | 1005.2 |
| 20260507023004 | 8 | 0 | 0.0 | 0.0 | 0.00 | 0.00 | 0.00 | 99 | 1005.3 |
| 20260507022904 | 8 | 0 | 0.0 | 0.0 | 0.00 | 0.00 | 0.00 | 99 | 1005.3 |
| 20260507022705 | 8 | 0 | 0.0 | 0.0 | 0.00 | 0.00 | 0.00 | 99 | 1005.1 |
| 20260507022604 | 8 | 0 | 0.0 | 0.0 | 0.00 | 0.00 | 0.00 | 99 | 1005.1 |
| 20260507022503 | 8 | 0 | 0.0 | 0.0 | 0.00 | 0.00 | 0.00 | 99 | 1005.3 |
| 20260507022404 | 8 | 0 | 0.0 | 0.0 | 0.00 | 0.00 | 0.00 | 98 | 1005.2 |
| 20260507022306 | 8 | 0 | 0.0 | 0.0 | 0.00 | 0.00 | 0.00 | 99 | 1005.1 |
| 20260507022204 | 8 | 0 | 0.0 | 0.0 | 0.00 | 0.00 | 0.00 | 98 | 1005.2 |
| 20260507022105 | 8 | 0 | 0.0 | 0.0 | 0.00 | 0.00 | 0.00 | 98 | 1005.1 |
| 20260507022004 | 8 | 0 | 0.0 | 0.0 | 0.00 | 0.00 | 0.00 | 98 | 1005.1 |
| 20260507021905 | 8 | 0 | 0.0 | 0.0 | 0.00 | 0.00 | 0.00 | 98 | 1005.2 |
| 20260507021803 | 8 | 0 | 0.0 | 0.0 | 0.00 | 0.00 | 0.00 | 98 | 1005.1 |
| 20260507021704 | 8 | 0 | 0.0 | 0.0 | 0.00 | 0.00 | 0.00 | 98 | 1005.1 |
| 20260507021604 | 8 | 0 | 0.0 | 0.0 | 0.00 | 0.00 | 0.00 | 98 | 1005.1 |
| 20260507021503 | 8 | 0 | 0.0 | 0.0 | 0.00 | 0.00 | 0.00 | 98 | 1005.3 |
| 20260507021404 | 8 | 0 | 0.0 | 0.0 | 0.00 | 0.00 | 0.00 | 99 | 1005.2 |
| 20260507021303 | 8 | 0 | 0.0 | 0.0 | 0.00 | 0.00 | 0.00 | 98 | 1005.2 |
| 20260507021205 | 8 | 0 | 0.0 | 0.0 | 0.00 | 0.00 | 0.00 | 99 | 1005.2 |
| 20260507021104 | 8 | 0 | 0.0 | 0.0 | 0.00 | 0.00 | 0.00 | 99 | 1005.4 |
| 20260507021004 | 8 | 0 | 0.0 | 0.0 | 0.00 | 0.00 | 0.00 | 99 | 1005.2 |
| 20260507020903 | 8 | 0 | 0.0 | 0.0 | 0.00 | 0.00 | 0.00 | 99 | 1005.2 |
| 20260507020803 | 8 | 0 | 0.0 | 0.0 | 0.00 | 0.00 | 0.00 | 98 | 1005.3 |
| 20260507020705 | 8 | 0 | 0.0 | 0.0 | 0.00 | 0.00 | 0.00 | 98 | 1005.1 |
| 20260507020603 | 8 | 0 | 0.0 | 0.0 | 0.00 | 0.00 | 0.00 | 98 | 1005.2 |
| 20260507020504 | 8 | 0 | 0.0 | 0.0 | 0.00 | 0.00 | 0.00 | 98 | 1005.3 |
| 20260507020403 | 8 | 0 | 0.0 | 0.0 | 0.00 | 0.00 | 0.00 | 98 | 1005.2 |
| 20260507020320 | 8 | 0 | 0.0 | 0.0 | 0.00 | 0.00 | 0.00 | 98 | 1005.2 |
| 20260507020304 | 8 | 0 | 0.0 | 0.0 | 0.00 | 0.00 | 0.00 | 98 | 1005.4 |
| 20260507020203 | 8 | 0 | 0.0 | 0.0 | 0.00 | 0.00 | 0.00 | 98 | 1005.3 |
| 20260507020004 | 8 | 0 | 0.0 | 0.0 | 0.00 | 0.00 | 0.00 | 98 | 1005.3 |
| 20260507015903 | 8 | 0 | 0.0 | 0.0 | 0.00 | 0.00 | 0.00 | 98 | 1005.3 |
| 20260507015803 | 8 | 0 | 0.0 | 0.0 | 0.00 | 0.00 | 0.00 | 98 | 1005.3 |
| 20260507015704 | 8 | 0 | 0.0 | 0.0 | 0.00 | 0.00 | 0.00 | 98 | 1005.2 |
| 20260507015604 | 8 | 0 | 0.0 | 0.0 | 0.00 | 0.00 | 0.00 | 98 | 1005.3 |
| 20260507015504 | 8 | 0 | 0.0 | 0.0 | 0.00 | 0.00 | 0.00 | 98 | 1005.2 |
| 20260507015404 | 8 | 0 | 0.0 | 0.0 | 0.00 | 0.00 | 0.00 | 98 | 1005.2 |
| 20260507015306 | 8 | 0 | 0.0 | 0.0 | 0.00 | 0.00 | 0.00 | 98 | 1005.4 |
| 20260507015119 | 8 | 0 | 0.0 | 0.0 | 0.00 | 0.00 | 0.00 | 98 | 1005.3 |
| 20260507015104 | 8 | 0 | 0.0 | 0.0 | 0.00 | 0.00 | 0.00 | 98 | 1005.4 |
| 20260507015004 | 8 | 0 | 0.0 | 0.0 | 0.00 | 0.00 | 0.00 | 98 | 1005.4 |
| 20260507014819 | 8 | 0 | 0.0 | 0.0 | 0.00 | 0.00 | 0.00 | 98 | 1005.1 |
| 20260507014803 | 8 | 0 | 0.0 | 0.0 | 0.00 | 0.00 | 0.00 | 98 | 1005.4 |
| 20260507014705 | 8 | 0 | 0.0 | 0.0 | 0.00 | 0.00 | 0.00 | 98 | 1005.4 |
| 20260507014503 | 8 | 0 | 0.0 | 0.0 | 0.00 | 0.00 | 0.00 | 98 | 1005.3 |
| 20260507014403 | 8 | 0 | 0.0 | 0.0 | 0.00 | 0.00 | 0.00 | 98 | 1005.6 |
| 20260507014304 | 8 | 0 | 0.0 | 0.0 | 0.00 | 0.00 | 0.00 | 98 | 1005.4 |
| 20260507014205 | 8 | 0 | 0.0 | 0.0 | 0.00 | 0.00 | 0.00 | 98 | 1005.6 |
| 20260507014104 | 8 | 0 | 0.0 | 0.0 | 0.00 | 0.00 | 0.00 | 98 | 1005.4 |
| 20260507014004 | 8 | 0 | 0.0 | 0.0 | 0.00 | 0.00 | 0.00 | 98 | 1005.4 |
| 20260507013903 | 8 | 0 | 0.0 | 0.0 | 0.00 | 0.00 | 0.00 | 98 | 1005.5 |
| 20260507013803 | 8 | 0 | 0.0 | 0.0 | 0.00 | 0.00 | 0.00 | 98 | 1005.3 |
| 20260507013719 | 8 | 0 | 0.0 | 0.0 | 0.00 | 0.00 | 0.00 | 98 | 1005.3 |
| 20260507013703 | 8 | 0 | 0.0 | 0.0 | 0.00 | 0.00 | 0.00 | 98 | 1005.6 |
| 20260507013604 | 7 | 0 | 0.0 | 0.0 | 0.00 | 0.00 | 0.00 | 98 | 1005.4 |
| 20260507013404 | 7 | 0 | 0.0 | 0.0 | 0.00 | 0.00 | 0.00 | 98 | 1005.4 |
| 20260507013303 | 7 | 0 | 0.0 | 0.0 | 0.00 | 0.00 | 0.00 | 98 | 1005.4 |
| 20260507013203 | 7 | 0 | 0.0 | 0.0 | 0.00 | 0.00 | 0.00 | 98 | 1005.4 |
| 20260507013103 | 7 | 0 | 0.0 | 0.0 | 0.00 | 0.00 | 0.00 | 98 | 1005.5 |
| 20260507013005 | 7 | 0 | 0.0 | 1.6 | 0.00 | 0.00 | 0.00 | 98 | 1005.3 |
| 20260507012904 | 7 | 0 | 0.0 | 1.6 | 0.00 | 0.00 | 0.00 | 98 | 1005.4 |
| 20260507012805 | 7 | 59 | 0.0 | 1.6 | 0.00 | 0.00 | 0.00 | 98 | 1005.5 |
| 20260507012703 | 7 | 47 | 0.0 | 1.6 | 0.00 | 0.00 | 0.00 | 98 | 1005.3 |
| 20260507012603 | 7 | 37 | 0.0 | 1.6 | 0.00 | 0.00 | 0.00 | 98 | 1005.5 |
| 20260507012503 | 7 | 43 | 0.0 | 1.6 | 0.00 | 0.00 | 0.00 | 98 | 1005.5 |
| 20260507012404 | 7 | 51 | 0.0 | 1.6 | 0.00 | 0.00 | 0.00 | 98 | 1005.3 |
| 20260507012306 | 7 | 55 | 0.0 | 3.2 | 0.00 | 0.00 | 0.00 | 98 | 1005.3 |
| 20260507012204 | 7 | 67 | 0.0 | 3.2 | 0.00 | 0.00 | 0.00 | 97 | 1005.4 |
| 20260507012104 | 7 | 74 | 0.0 | 3.2 | 0.00 | 0.00 | 0.00 | 97 | 1005.3 |
| 20260507012004 | 7 | 75 | 0.0 | 3.2 | 0.00 | 0.00 | 0.00 | 97 | 1005.2 |
| 20260507011903 | 7 | 76 | 0.0 | 3.2 | 0.00 | 0.00 | 0.00 | 97 | 1005.3 |
| 20260507011803 | 7 | 80 | 0.0 | 3.2 | 0.00 | 0.00 | 0.00 | 97 | 1005.4 |
| 20260507011704 | 7 | 88 | 0.0 | 3.2 | 0.00 | 0.00 | 0.00 | 98 | 1005.4 |
| 20260507011618 | 8 | 94 | 0.0 | 3.2 | 0.00 | 0.00 | 0.00 | 98 | 1005.4 |
| 20260507011604 | 8 | 96 | 0.0 | 3.2 | 0.00 | 0.00 | 0.00 | 98 | 1005.3 |
| 20260507011503 | 8 | 98 | 0.0 | 3.2 | 0.00 | 0.00 | 0.00 | 98 | 1005.3 |
| 20260507011419 | 8 | 99 | 0.0 | 3.2 | 0.00 | 0.00 | 0.00 | 98 | 1005.3 |
| 20260507011303 | 8 | 98 | 0.0 | 3.2 | 0.00 | 0.00 | 0.00 | 98 | 1005.4 |
| 20260507011103 | 8 | 92 | 0.0 | 1.6 | 0.00 | 0.00 | 0.00 | 98 | 1005.4 |
| 20260507010903 | 8 | 101 | 0.0 | 1.6 | 0.00 | 0.00 | 0.00 | 98 | 1005.6 |
| 20260507010803 | 8 | 101 | 0.0 | 1.6 | 0.00 | 0.00 | 0.00 | 98 | 1005.6 |
| 20260507010705 | 8 | 101 | 0.0 | 1.6 | 0.00 | 0.00 | 0.00 | 98 | 1005.5 |
| 20260507010603 | 8 | 101 | 0.0 | 1.6 | 0.00 | 0.00 | 0.00 | 98 | 1005.5 |
| 20260507010503 | 8 | 104 | 0.0 | 1.6 | 0.00 | 0.00 | 0.00 | 98 | 1005.4 |
| 20260507010305 | 8 | 121 | 0.0 | 3.2 | 0.00 | 0.00 | 0.00 | 98 | 1005.4 |
| 20260507010203 | 8 | 127 | 0.0 | 3.2 | 0.00 | 0.00 | 0.00 | 98 | 1005.5 |
| 20260507010104 | 8 | 130 | 0.0 | 3.2 | 0.00 | 0.00 | 0.00 | 98 | 1005.5 |
| 20260507010005 | 8 | 126 | 0.0 | 3.2 | 0.00 | 0.00 | 0.00 | 98 | 1005.4 |
| 20260507005903 | 8 | 125 | 1.6 | 3.2 | 0.00 | 0.00 | 0.00 | 97 | 1005.5 |
| 20260507005803 | 8 | 125 | 1.6 | 3.2 | 0.00 | 0.00 | 0.00 | 97 | 1005.5 |
| 20260507005704 | 8 | 124 | 1.6 | 3.2 | 0.00 | 0.00 | 0.00 | 97 | 1005.5 |
| 20260507005605 | 8 | 124 | 1.6 | 3.2 | 0.00 | 0.00 | 0.00 | 97 | 1005.3 |
| 20260507005503 | 8 | 124 | 1.6 | 3.2 | 0.00 | 0.00 | 0.00 | 97 | 1005.5 |
| 20260507005403 | 8 | 123 | 1.6 | 3.2 | 0.00 | 0.00 | 0.00 | 97 | 1005.6 |
| 20260507005306 | 8 | 121 | 1.6 | 3.2 | 0.00 | 0.00 | 0.00 | 97 | 1005.3 |
| 20260507005205 | 8 | 120 | 1.6 | 3.2 | 0.00 | 0.00 | 0.00 | 97 | 1005.4 |
| 20260507005119 | 8 | 119 | 1.6 | 3.2 | 0.00 | 0.00 | 0.00 | 97 | 1005.4 |
| 20260507005103 | 8 | 119 | 1.6 | 3.2 | 0.00 | 0.00 | 0.00 | 97 | 1005.3 |
| 20260507005005 | 8 | 121 | 0.0 | 1.6 | 0.00 | 0.00 | 0.00 | 97 | 1005.4 |
| 20260507004803 | 8 | 121 | 0.0 | 1.6 | 0.00 | 0.00 | 0.00 | 97 | 1005.4 |
| 20260507004703 | 8 | 121 | 0.0 | 1.6 | 0.00 | 0.00 | 0.00 | 97 | 1005.4 |
| 20260507004604 | 8 | 120 | 0.0 | 1.6 | 0.00 | 0.00 | 0.00 | 97 | 1005.4 |
| 20260507004518 | 8 | 120 | 0.0 | 1.6 | 0.00 | 0.00 | 0.00 | 97 | 1005.4 |
| 20260507004504 | 8 | 120 | 0.0 | 1.6 | 0.00 | 0.00 | 0.00 | 97 | 1005.2 |
| 20260507004404 | 8 | 120 | 0.0 | 1.6 | 0.00 | 0.00 | 0.00 | 97 | 1005.5 |
| 20260507004204 | 8 | 121 | 0.0 | 1.6 | 0.00 | 0.00 | 0.00 | 97 | 1005.6 |
| 20260507004104 | 8 | 121 | 0.0 | 1.6 | 0.00 | 0.00 | 0.00 | 97 | 1005.6 |
| 20260507004003 | 8 | 0 | 0.0 | 1.6 | 0.00 | 0.00 | 0.00 | 97 | 1005.4 |
| 20260507003903 | 8 | 0 | 0.0 | 1.6 | 0.00 | 0.00 | 0.00 | 97 | 1005.5 |
| 20260507003803 | 8 | 0 | 0.0 | 0.0 | 0.00 | 0.00 | 0.00 | 97 | 1005.4 |
| 20260507003705 | 8 | 0 | 0.0 | 0.0 | 0.00 | 0.00 | 0.00 | 97 | 1005.4 |
| 20260507003604 | 8 | 0 | 0.0 | 0.0 | 0.00 | 0.00 | 0.00 | 97 | 1005.3 |
| 20260507003503 | 8 | 0 | 0.0 | 0.0 | 0.00 | 0.00 | 0.00 | 97 | 1005.8 |
| 20260507003403 | 8 | 0 | 0.0 | 0.0 | 0.00 | 0.00 | 0.00 | 97 | 1005.5 |
| 20260507003303 | 8 | 0 | 0.0 | 0.0 | 0.00 | 0.00 | 0.00 | 97 | 1005.4 |
| 20260507003204 | 8 | 0 | 0.0 | 1.6 | 0.00 | 0.00 | 0.00 | 97 | 1005.5 |
| 20260507003103 | 8 | 0 | 0.0 | 1.6 | 0.00 | 0.00 | 0.00 | 97 | 1005.5 |
| 20260507003003 | 8 | 0 | 0.0 | 1.6 | 0.00 | 0.00 | 0.00 | 97 | 1005.5 |
| 20260507002903 | 8 | 120 | 0.0 | 1.6 | 0.00 | 0.00 | 0.00 | 96 | 1005.8 |
| 20260507002818 | 8 | 120 | 0.0 | 1.6 | 0.00 | 0.00 | 0.00 | 96 | 1005.8 |
| 20260507002803 | 8 | 120 | 0.0 | 1.6 | 0.00 | 0.00 | 0.00 | 96 | 1005.4 |
| 20260507002504 | 8 | 120 | 0.0 | 1.6 | 0.00 | 0.00 | 0.00 | 96 | 1005.6 |
| 20260507002417 | 8 | 120 | 0.0 | 1.6 | 0.00 | 0.00 | 0.00 | 96 | 1005.6 |
| 20260507002403 | 8 | 120 | 0.0 | 1.6 | 0.00 | 0.00 | 0.00 | 96 | 1005.8 |
| 20260507002306 | 8 | 120 | 0.0 | 1.6 | 0.00 | 0.00 | 0.00 | 96 | 1005.5 |
| 20260507002104 | 8 | 120 | 0.0 | 1.6 | 0.00 | 0.00 | 0.00 | 96 | 1005.5 |
| 20260507002019 | 8 | 120 | 0.0 | 1.6 | 0.00 | 0.00 | 0.00 | 96 | 1005.5 |
| 20260507002003 | 8 | 120 | 0.0 | 1.6 | 0.00 | 0.00 | 0.00 | 96 | 1005.8 |
| 20260507001904 | 8 | 120 | 0.0 | 1.6 | 0.00 | 0.00 | 0.00 | 96 | 1005.6 |
| 20260507001820 | 8 | 0 | 0.0 | 1.6 | 0.00 | 0.00 | 0.00 | 96 | 1005.6 |
| 20260507001703 | 8 | 0 | 0.0 | 0.0 | 0.00 | 0.00 | 0.00 | 96 | 1005.6 |
| 20260507001420 | 8 | 0 | 0.0 | 0.0 | 0.00 | 0.00 | 0.00 | 96 | 1005.6 |
| 20260507001404 | 8 | 0 | 0.0 | 0.0 | 0.00 | 0.00 | 0.00 | 96 | 1005.8 |
| 20260507001303 | 8 | 0 | 0.0 | 0.0 | 0.00 | 0.00 | 0.00 | 96 | 1005.4 |
| 20260507001104 | 8 | 0 | 0.0 | 0.0 | 0.00 | 0.00 | 0.00 | 96 | 1005.8 |
| 20260507001003 | 8 | 0 | 0.0 | 0.0 | 0.00 | 0.00 | 0.00 | 96 | 1005.6 |
| 20260507000919 | 8 | 0 | 0.0 | 0.0 | 0.00 | 0.00 | 0.00 | 96 | 1005.6 |
| 20260507000903 | 8 | 0 | 0.0 | 0.0 | 0.00 | 0.00 | 0.00 | 96 | 1005.5 |
| 20260507000803 | 8 | 0 | 0.0 | 0.0 | 0.00 | 0.00 | 0.00 | 96 | 1005.5 |
| 20260507000604 | 8 | 0 | 0.0 | 0.0 | 0.00 | 0.00 | 0.00 | 97 | 1005.5 |
| 20260507000518 | 8 | 0 | 0.0 | 0.0 | 0.00 | 0.00 | 0.00 | 97 | 1005.5 |
| 20260507000503 | 8 | 0 | 0.0 | 0.0 | 0.00 | 0.00 | 0.00 | 97 | 1005.8 |
| 20260507000405 | 8 | 0 | 0.0 | 0.0 | 0.00 | 0.00 | 0.00 | 97 | 1005.8 |
| 20260507000019 | 8 | 0 | 0.0 | 0.0 | 0.00 | 0.00 | 0.00 | 97 | 1005.5 |
| 20260507000003 | 8 | 0 | 0.0 | 0.0 | 0.00 | 0.00 | 0.00 | 97 | 1005.6 |
| 20260506235904 | 8 | 0 | 0.0 | 0.0 | 0.00 | 0.00 | 0.00 | 97 | 1005.6 |
| 20260506235705 | 9 | 0 | 0.0 | 1.6 | 0.00 | 0.00 | 0.00 | 97 | 1005.5 |
| 20260506235617 | 9 | 0 | 0.0 | 1.6 | 0.00 | 0.00 | 0.00 | 97 | 1005.5 |
| 20260506235603 | 9 | 120 | 0.0 | 1.6 | 0.00 | 0.00 | 0.00 | 97 | 1005.6 |
| 20260506235503 | 9 | 120 | 0.0 | 1.6 | 0.00 | 0.00 | 0.00 | 97 | 1005.5 |
| 20260506235317 | 9 | 120 | 0.0 | 1.6 | 0.00 | 0.00 | 0.00 | 97 | 1005.5 |
| 20260506235306 | 9 | 120 | 0.0 | 1.6 | 0.00 | 0.00 | 0.00 | 97 | 1005.8 |
| 20260506235203 | 9 | 120 | 0.0 | 1.6 | 0.00 | 0.00 | 0.00 | 97 | 1005.6 |
| 20260506235017 | 9 | 120 | 0.0 | 3.2 | 0.00 | 0.00 | 0.00 | 97 | 1005.6 |
| 20260506234904 | 9 | 120 | 1.6 | 3.2 | 0.00 | 0.00 | 0.00 | 97 | 1005.9 |
| 20260506234804 | 9 | 120 | 1.6 | 3.2 | 0.00 | 0.00 | 0.00 | 97 | 1005.8 |
| 20260506234703 | 9 | 119 | 1.6 | 3.2 | 0.00 | 0.00 | 0.00 | 97 | 1005.8 |
| 20260506234619 | 9 | 119 | 1.6 | 3.2 | 0.00 | 0.00 | 0.00 | 97 | 1005.8 |
| 20260506234603 | 9 | 119 | 1.6 | 3.2 | 0.00 | 0.00 | 0.00 | 97 | 1005.9 |
| 20260506234303 | 9 | 118 | 1.6 | 3.2 | 0.00 | 0.00 | 0.00 | 97 | 1006.1 |
| 20260506234204 | 9 | 118 | 1.6 | 3.2 | 0.00 | 0.00 | 0.00 | 97 | 1006.0 |
| 20260506234104 | 9 | 118 | 0.0 | 3.2 | 0.00 | 0.00 | 0.00 | 97 | 1005.9 |
| 20260506234003 | 9 | 117 | 0.0 | 3.2 | 0.00 | 0.00 | 0.00 | 97 | 1005.9 |
| 20260506233903 | 9 | 116 | 0.0 | 3.2 | 0.00 | 0.00 | 0.00 | 97 | 1005.9 |
| 20260506233804 | 9 | 112 | 0.0 | 3.2 | 0.00 | 0.00 | 0.00 | 97 | 1005.9 |
| 20260506233705 | 9 | 110 | 0.0 | 1.6 | 0.00 | 0.00 | 0.00 | 97 | 1006.0 |
| 20260506233603 | 9 | 0 | 0.0 | 0.0 | 0.00 | 0.00 | 0.00 | 96 | 1005.9 |
| 20260506233503 | 9 | 0 | 0.0 | 0.0 | 0.00 | 0.00 | 0.00 | 96 | 1006.0 |
| 20260506233404 | 9 | 0 | 0.0 | 0.0 | 0.00 | 0.00 | 0.00 | 96 | 1005.9 |
| 20260506233303 | 9 | 0 | 0.0 | 0.0 | 0.00 | 0.00 | 0.00 | 96 | 1005.9 |
| 20260506233204 | 9 | 0 | 0.0 | 0.0 | 0.00 | 0.00 | 0.00 | 96 | 1006.1 |
| 20260506233104 | 9 | 0 | 0.0 | 0.0 | 0.00 | 0.00 | 0.00 | 96 | 1005.8 |
| 20260506233004 | 9 | 0 | 0.0 | 0.0 | 0.00 | 0.00 | 0.00 | 96 | 1005.8 |
| 20260506232903 | 9 | 0 | 0.0 | 0.0 | 0.00 | 0.00 | 0.00 | 96 | 1005.8 |
| 20260506232804 | 9 | 0 | 0.0 | 0.0 | 0.00 | 0.00 | 0.00 | 96 | 1005.9 |
| 20260506232704 | 9 | 0 | 0.0 | 0.0 | 0.00 | 0.00 | 0.00 | 96 | 1005.9 |
| 20260506232604 | 9 | 0 | 0.0 | 0.0 | 0.00 | 0.00 | 0.00 | 96 | 1005.9 |
| 20260506232503 | 9 | 0 | 0.0 | 0.0 | 0.00 | 0.00 | 0.00 | 96 | 1005.9 |
| 20260506232306 | 9 | 0 | 0.0 | 0.0 | 0.00 | 0.00 | 0.00 | 96 | 1005.8 |
| 20260506232204 | 9 | 0 | 0.0 | 0.0 | 0.00 | 0.00 | 0.00 | 96 | 1005.6 |
| 20260506232105 | 9 | 0 | 0.0 | 0.0 | 0.00 | 0.00 | 0.00 | 96 | 1005.8 |
| 20260506232004 | 9 | 0 | 0.0 | 0.0 | 0.00 | 0.00 | 0.00 | 96 | 1005.8 |
| 20260506231903 | 9 | 0 | 0.0 | 3.2 | 0.00 | 0.00 | 0.00 | 96 | 1005.9 |
| 20260506231804 | 9 | 110 | 0.0 | 3.2 | 0.00 | 0.00 | 0.00 | 96 | 1005.8 |
| 20260506231703 | 9 | 111 | 0.0 | 3.2 | 0.00 | 0.00 | 0.00 | 96 | 1005.9 |
| 20260506231603 | 9 | 113 | 0.0 | 3.2 | 0.00 | 0.00 | 0.00 | 96 | 1005.9 |
| 20260506231504 | 9 | 113 | 0.0 | 3.2 | 0.00 | 0.00 | 0.00 | 96 | 1005.9 |
| 20260506231404 | 9 | 113 | 0.0 | 3.2 | 0.00 | 0.00 | 0.00 | 96 | 1006.0 |
| 20260506231303 | 9 | 113 | 0.0 | 3.2 | 0.00 | 0.00 | 0.00 | 96 | 1005.8 |
| 20260506231204 | 9 | 113 | 0.0 | 3.2 | 0.00 | 0.00 | 0.00 | 96 | 1005.9 |
| 20260506231103 | 9 | 113 | 0.0 | 3.2 | 0.00 | 0.00 | 0.00 | 96 | 1005.9 |
| 20260506231017 | 9 | 113 | 0.0 | 3.2 | 0.00 | 0.00 | 0.00 | 96 | 1005.9 |
| 20260506231004 | 9 | 113 | 0.0 | 3.2 | 0.00 | 0.00 | 0.00 | 96 | 1005.8 |
| 20260506230903 | 9 | 114 | 0.0 | 3.2 | 0.00 | 0.00 | 0.00 | 96 | 1006.0 |
| 20260506230704 | 9 | 120 | 0.0 | 1.6 | 0.00 | 0.00 | 0.00 | 96 | 1005.9 |
| 20260506230603 | 9 | 0 | 0.0 | 1.6 | 0.00 | 0.00 | 0.00 | 96 | 1006.1 |
| 20260506230504 | 9 | 0 | 0.0 | 0.0 | 0.00 | 0.00 | 0.00 | 95 | 1006.1 |
| 20260506230403 | 9 | 0 | 0.0 | 0.0 | 0.00 | 0.00 | 0.00 | 95 | 1006.0 |
| 20260506230303 | 9 | 0 | 0.0 | 0.0 | 0.00 | 0.00 | 0.00 | 95 | 1006.0 |
| 20260506230204 | 9 | 0 | 0.0 | 0.0 | 0.00 | 0.00 | 0.00 | 95 | 1006.0 |
| 20260506230105 | 9 | 0 | 0.0 | 0.0 | 0.00 | 0.00 | 0.00 | 95 | 1006.0 |
| 20260506230005 | 9 | 0 | 0.0 | 0.0 | 0.00 | 0.00 | 0.00 | 95 | 1006.1 |
| 20260506225803 | 9 | 0 | 0.0 | 0.0 | 0.00 | 0.00 | 0.00 | 95 | 1006.0 |
| 20260506225704 | 9 | 0 | 0.0 | 0.0 | 0.00 | 0.00 | 0.00 | 95 | 1006.0 |
| 20260506225604 | 9 | 0 | 0.0 | 0.0 | 0.00 | 0.00 | 0.00 | 95 | 1006.0 |
| 20260506225505 | 9 | 0 | 0.0 | 0.0 | 0.00 | 0.00 | 0.00 | 95 | 1006.1 |
| 20260506225405 | 9 | 0 | 0.0 | 1.6 | 0.00 | 0.00 | 0.00 | 95 | 1006.2 |
| 20260506225317 | 9 | 0 | 0.0 | 1.6 | 0.00 | 0.00 | 0.00 | 95 | 1006.2 |
| 20260506225305 | 9 | 0 | 0.0 | 1.6 | 0.00 | 0.00 | 0.00 | 95 | 1005.9 |
| 20260506225221 | 9 | 0 | 0.0 | 1.6 | 0.00 | 0.00 | 0.00 | 95 | 1005.9 |
| 20260506225204 | 9 | 0 | 0.0 | 1.6 | 0.00 | 0.00 | 0.00 | 95 | 1006.0 |
| 20260506224903 | 9 | 0 | 0.0 | 1.6 | 0.00 | 0.00 | 0.00 | 95 | 1006.1 |
| 20260506224805 | 9 | 0 | 0.0 | 1.6 | 0.00 | 0.00 | 0.00 | 95 | 1006.1 |
| 20260506224705 | 9 | 0 | 0.0 | 1.6 | 0.00 | 0.00 | 0.00 | 95 | 1006.0 |
| 20260506224504 | 9 | 0 | 0.0 | 1.6 | 0.00 | 0.00 | 0.00 | 95 | 1006.0 |
| 20260506224404 | 9 | 120 | 0.0 | 1.6 | 0.00 | 0.00 | 0.00 | 95 | 1006.0 |
| 20260506224305 | 9 | 120 | 0.0 | 1.6 | 0.00 | 0.00 | 0.00 | 95 | 1005.9 |
| 20260506224203 | 9 | 120 | 0.0 | 1.6 | 0.00 | 0.00 | 0.00 | 95 | 1005.9 |
| 20260506224004 | 10 | 120 | 0.0 | 1.6 | 0.00 | 0.00 | 0.00 | 95 | 1005.6 |
| 20260506223904 | 10 | 120 | 0.0 | 1.6 | 0.00 | 0.00 | 0.00 | 95 | 1006.1 |
| 20260506223804 | 10 | 120 | 0.0 | 1.6 | 0.00 | 0.00 | 0.00 | 96 | 1005.9 |
| 20260506223705 | 10 | 120 | 0.0 | 1.6 | 0.00 | 0.00 | 0.00 | 96 | 1005.9 |
| 20260506223603 | 10 | 120 | 0.0 | 1.6 | 0.00 | 0.00 | 0.00 | 96 | 1005.9 |
| 20260506223504 | 10 | 120 | 0.0 | 1.6 | 0.00 | 0.00 | 0.00 | 96 | 1005.9 |
| 20260506223404 | 10 | 120 | 0.0 | 1.6 | 0.00 | 0.00 | 0.00 | 96 | 1005.9 |
| 20260506223304 | 10 | 120 | 1.6 | 1.6 | 0.00 | 0.00 | 0.00 | 96 | 1006.0 |
| 20260506223104 | 10 | 120 | 1.6 | 3.2 | 0.00 | 0.00 | 0.00 | 96 | 1005.8 |
| 20260506223005 | 10 | 120 | 1.6 | 3.2 | 0.00 | 0.00 | 0.00 | 96 | 1005.9 |
| 20260506222903 | 10 | 120 | 1.6 | 3.2 | 0.00 | 0.00 | 0.00 | 96 | 1005.8 |
| 20260506222803 | 10 | 120 | 1.6 | 3.2 | 0.00 | 0.00 | 0.00 | 96 | 1005.8 |
| 20260506222704 | 10 | 120 | 1.6 | 3.2 | 0.00 | 0.00 | 0.00 | 96 | 1005.9 |
| 20260506222603 | 10 | 120 | 1.6 | 3.2 | 0.00 | 0.00 | 0.00 | 96 | 1005.8 |
| 20260506222504 | 10 | 120 | 1.6 | 3.2 | 0.00 | 0.00 | 0.00 | 96 | 1005.8 |
| 20260506222405 | 10 | 120 | 1.6 | 3.2 | 0.00 | 0.00 | 0.00 | 96 | 1005.8 |
| 20260506222306 | 10 | 120 | 1.6 | 3.2 | 0.00 | 0.00 | 0.00 | 96 | 1005.9 |
| 20260506222204 | 10 | 121 | 1.6 | 3.2 | 0.00 | 0.00 | 0.00 | 96 | 1005.9 |
| 20260506222104 | 10 | 121 | 1.6 | 3.2 | 0.00 | 0.00 | 0.00 | 96 | 1005.9 |
| 20260506222003 | 10 | 121 | 1.6 | 3.2 | 0.00 | 0.00 | 0.00 | 96 | 1005.9 |
| 20260506221904 | 10 | 121 | 1.6 | 3.2 | 0.00 | 0.00 | 0.00 | 96 | 1005.8 |
| 20260506221805 | 10 | 121 | 1.6 | 3.2 | 0.00 | 0.00 | 0.00 | 96 | 1005.9 |
| 20260506221703 | 10 | 121 | 1.6 | 3.2 | 0.00 | 0.00 | 0.00 | 95 | 1005.6 |
| 20260506221603 | 10 | 121 | 1.6 | 3.2 | 0.00 | 0.00 | 0.00 | 95 | 1005.8 |
| 20260506221504 | 10 | 121 | 1.6 | 3.2 | 0.00 | 0.00 | 0.00 | 95 | 1005.9 |
| 20260506221404 | 10 | 121 | 1.6 | 1.6 | 0.00 | 0.00 | 0.00 | 95 | 1005.6 |
| 20260506221317 | 10 | 121 | 1.6 | 1.6 | 0.00 | 0.00 | 0.00 | 95 | 1005.6 |
| 20260506221305 | 10 | 121 | 1.6 | 1.6 | 0.00 | 0.00 | 0.00 | 95 | 1005.9 |
| 20260506221205 | 10 | 121 | 0.0 | 1.6 | 0.00 | 0.00 | 0.00 | 95 | 1005.9 |
| 20260506221003 | 10 | 121 | 0.0 | 1.6 | 0.00 | 0.00 | 0.00 | 95 | 1005.6 |
| 20260506220903 | 10 | 121 | 0.0 | 1.6 | 0.00 | 0.00 | 0.00 | 95 | 1005.9 |
| 20260506220803 | 10 | 121 | 0.0 | 1.6 | 0.00 | 0.00 | 0.00 | 95 | 1005.9 |
| 20260506220704 | 10 | 121 | 0.0 | 1.6 | 0.00 | 0.00 | 0.00 | 95 | 1005.8 |
| 20260506220603 | 10 | 0 | 0.0 | 0.0 | 0.00 | 0.00 | 0.00 | 95 | 1005.8 |
| 20260506220503 | 10 | 0 | 0.0 | 0.0 | 0.00 | 0.00 | 0.00 | 94 | 1005.8 |
| 20260506220403 | 10 | 0 | 0.0 | 0.0 | 0.00 | 0.00 | 0.00 | 94 | 1005.8 |
| 20260506220304 | 10 | 0 | 0.0 | 1.6 | 0.00 | 0.00 | 0.00 | 94 | 1005.5 |
| 20260506220203 | 10 | 0 | 0.0 | 1.6 | 0.00 | 0.00 | 0.00 | 94 | 1005.8 |
| 20260506220120 | 10 | 0 | 0.0 | 1.6 | 0.00 | 0.00 | 0.00 | 94 | 1005.8 |
| 20260506220104 | 10 | 121 | 0.0 | 1.6 | 0.00 | 0.00 | 0.00 | 94 | 1005.8 |
| 20260506220005 | 10 | 121 | 0.0 | 1.6 | 0.00 | 0.00 | 0.00 | 94 | 1005.6 |
| 20260506215803 | 10 | 121 | 0.0 | 1.6 | 0.00 | 0.00 | 0.00 | 94 | 1005.8 |
| 20260506215705 | 10 | 121 | 0.0 | 1.6 | 0.00 | 0.00 | 0.00 | 94 | 1005.8 |
| 20260506215603 | 10 | 121 | 0.0 | 1.6 | 0.00 | 0.00 | 0.00 | 94 | 1006.1 |
| 20260506215520 | 10 | 121 | 0.0 | 1.6 | 0.00 | 0.00 | 0.00 | 94 | 1006.1 |
| 20260506215403 | 10 | 121 | 0.0 | 1.6 | 0.00 | 0.00 | 0.00 | 94 | 1005.8 |
| 20260506215205 | 10 | 121 | 0.0 | 1.6 | 0.00 | 0.00 | 0.00 | 93 | 1005.8 |
| 20260506215103 | 10 | 121 | 0.0 | 1.6 | 0.00 | 0.00 | 0.00 | 93 | 1005.6 |
| 20260506215004 | 10 | 0 | 0.0 | 0.0 | 0.00 | 0.00 | 0.00 | 93 | 1005.9 |
| 20260506214904 | 10 | 0 | 0.0 | 0.0 | 0.00 | 0.00 | 0.00 | 93 | 1005.9 |
| 20260506214808 | 10 | 0 | 0.0 | 0.0 | 0.00 | 0.00 | 0.00 | 93 | 1005.8 |
| 20260506214703 | 10 | 0 | 0.0 | 0.0 | 0.00 | 0.00 | 0.00 | 93 | 1005.8 |
| 20260506214605 | 10 | 0 | 0.0 | 0.0 | 0.00 | 0.00 | 0.00 | 93 | 1005.9 |
| 20260506214503 | 10 | 0 | 0.0 | 0.0 | 0.00 | 0.00 | 0.00 | 93 | 1005.8 |
| 20260506214403 | 10 | 0 | 0.0 | 0.0 | 0.00 | 0.00 | 0.00 | 93 | 1005.9 |
| 20260506214303 | 10 | 0 | 0.0 | 0.0 | 0.00 | 0.00 | 0.00 | 93 | 1005.9 |
| 20260506214217 | 10 | 0 | 0.0 | 0.0 | 0.00 | 0.00 | 0.00 | 93 | 1005.9 |
| 20260506214205 | 10 | 0 | 0.0 | 0.0 | 0.00 | 0.00 | 0.00 | 93 | 1005.6 |
| 20260506214103 | 10 | 0 | 0.0 | 0.0 | 0.00 | 0.00 | 0.00 | 93 | 1005.6 |
| 20260506213903 | 10 | 0 | 0.0 | 0.0 | 0.00 | 0.00 | 0.00 | 93 | 1005.9 |
| 20260506213804 | 10 | 0 | 0.0 | 0.0 | 0.00 | 0.00 | 0.00 | 93 | 1005.9 |
| 20260506213718 | 10 | 0 | 0.0 | 0.0 | 0.00 | 0.00 | 0.00 | 93 | 1005.9 |
| 20260506213703 | 10 | 0 | 0.0 | 0.0 | 0.00 | 0.00 | 0.00 | 93 | 1005.6 |
| 20260506213603 | 10 | 0 | 0.0 | 0.0 | 0.00 | 0.00 | 0.00 | 93 | 1005.9 |
| 20260506213403 | 10 | 0 | 0.0 | 0.0 | 0.00 | 0.00 | 0.00 | 93 | 1005.9 |
| 20260506213303 | 10 | 0 | 0.0 | 0.0 | 0.00 | 0.00 | 0.00 | 93 | 1005.8 |
| 20260506213204 | 10 | 0 | 0.0 | 0.0 | 0.00 | 0.00 | 0.00 | 93 | 1006.0 |
| 20260506213103 | 10 | 0 | 0.0 | 0.0 | 0.00 | 0.00 | 0.00 | 93 | 1005.9 |
| 20260506213003 | 10 | 0 | 0.0 | 0.0 | 0.00 | 0.03 | 0.00 | 93 | 1005.6 |
| 20260506212904 | 10 | 0 | 0.0 | 0.0 | 0.00 | 0.03 | 0.00 | 92 | 1005.6 |
| 20260506212817 | 10 | 0 | 0.0 | 0.0 | 0.00 | 0.03 | 0.00 | 92 | 1005.6 |
| 20260506212804 | 10 | 0 | 0.0 | 0.0 | 0.00 | 0.03 | 0.00 | 92 | 1005.9 |
| 20260506212704 | 10 | 0 | 0.0 | 0.0 | 0.00 | 0.03 | 0.00 | 92 | 1006.0 |
| 20260506212503 | 10 | 0 | 0.0 | 0.0 | 0.00 | 0.03 | 0.00 | 92 | 1005.8 |
| 20260506212404 | 10 | 0 | 0.0 | 0.0 | 0.00 | 0.03 | 0.00 | 92 | 1005.9 |
| 20260506212318 | 10 | 0 | 0.0 | 0.0 | 0.00 | 0.03 | 0.00 | 92 | 1005.9 |
| 20260506212306 | 10 | 0 | 0.0 | 0.0 | 0.00 | 0.03 | 0.00 | 92 | 1005.8 |
| 20260506212217 | 10 | 0 | 0.0 | 0.0 | 0.00 | 0.03 | 0.00 | 92 | 1005.8 |
| 20260506212203 | 10 | 0 | 0.0 | 0.0 | 0.00 | 0.03 | 0.00 | 92 | 1005.9 |
| 20260506211905 | 10 | 0 | 0.0 | 0.0 | 0.00 | 0.03 | 0.00 | 91 | 1005.8 |
| 20260506211820 | 11 | 0 | 0.0 | 0.0 | 0.00 | 0.03 | 0.00 | 91 | 1005.8 |
| 20260506211803 | 11 | 0 | 0.0 | 0.0 | 0.00 | 0.03 | 0.00 | 91 | 1005.6 |
| 20260506211704 | 11 | 0 | 0.0 | 0.0 | 0.00 | 0.03 | 0.00 | 91 | 1005.6 |
| 20260506211504 | 11 | 0 | 0.0 | 0.0 | 0.00 | 0.03 | 0.00 | 91 | 1005.6 |
| 20260506211404 | 11 | 0 | 0.0 | 0.0 | 0.00 | 0.03 | 0.00 | 91 | 1005.8 |
| 20260506211304 | 11 | 0 | 0.0 | 0.0 | 0.00 | 0.03 | 0.00 | 91 | 1005.5 |
| 20260506211204 | 11 | 0 | 0.0 | 0.0 | 0.00 | 0.03 | 0.00 | 91 | 1005.6 |
| 20260506211103 | 11 | 0 | 0.0 | 0.0 | 0.00 | 0.03 | 0.00 | 91 | 1005.6 |
| 20260506211003 | 11 | 0 | 0.0 | 0.0 | 0.00 | 0.03 | 0.00 | 91 | 1005.8 |
| 20260506210804 | 11 | 0 | 0.0 | 0.0 | 0.00 | 0.03 | 0.00 | 91 | 1005.8 |
| 20260506210709 | 11 | 0 | 0.0 | 0.0 | 0.00 | 0.03 | 0.00 | 91 | 1005.6 |
| 20260506210603 | 11 | 0 | 0.0 | 0.0 | 0.00 | 0.03 | 0.00 | 91 | 1005.8 |
| 20260506210517 | 11 | 0 | 0.0 | 0.0 | 0.00 | 0.03 | 0.00 | 91 | 1005.8 |
| 20260506210503 | 11 | 0 | 0.0 | 0.0 | 0.00 | 0.03 | 0.00 | 91 | 1005.6 |
| 20260506210403 | 11 | 0 | 0.0 | 0.0 | 0.00 | 0.03 | 0.00 | 91 | 1005.6 |
| 20260506210104 | 11 | 0 | 0.0 | 0.0 | 0.00 | 0.03 | 0.00 | 91 | 1005.6 |
| 20260506210004 | 11 | 0 | 0.0 | 0.0 | 0.00 | 0.03 | 0.00 | 91 | 1005.8 |
| 20260506205903 | 11 | 0 | 0.0 | 0.0 | 0.00 | 0.03 | 0.00 | 91 | 1005.6 |
| 20260506205805 | 11 | 0 | 0.0 | 0.0 | 0.00 | 0.03 | 0.00 | 91 | 1005.6 |
| 20260506205704 | 11 | 0 | 0.0 | 0.0 | 0.00 | 0.03 | 0.00 | 91 | 1005.6 |
| 20260506205604 | 11 | 0 | 0.0 | 0.0 | 0.00 | 0.03 | 0.00 | 91 | 1005.8 |
| 20260506205505 | 11 | 0 | 0.0 | 0.0 | 0.00 | 0.03 | 0.00 | 91 | 1005.5 |
| 20260506205403 | 11 | 0 | 0.0 | 0.0 | 0.00 | 0.03 | 0.00 | 91 | 1005.6 |
| 20260506205320 | 11 | 0 | 0.0 | 0.0 | 0.00 | 0.03 | 0.00 | 91 | 1005.6 |
| 20260506205306 | 11 | 0 | 0.0 | 0.0 | 0.00 | 0.03 | 0.00 | 91 | 1005.5 |
| 20260506205203 | 11 | 0 | 0.0 | 0.0 | 0.00 | 0.03 | 0.00 | 91 | 1005.5 |
| 20260506205004 | 11 | 0 | 0.0 | 0.0 | 0.00 | 0.03 | 0.00 | 91 | 1005.6 |
| 20260506204904 | 11 | 0 | 0.0 | 0.0 | 0.00 | 0.03 | 0.00 | 91 | 1005.6 |
| 20260506204817 | 11 | 0 | 0.0 | 0.0 | 0.00 | 0.03 | 0.00 | 91 | 1005.6 |
| 20260506204803 | 11 | 0 | 0.0 | 0.0 | 0.00 | 0.03 | 0.00 | 91 | 1005.5 |
| 20260506204703 | 11 | 0 | 0.0 | 0.0 | 0.00 | 0.03 | 0.00 | 91 | 1005.6 |
| 20260506204504 | 12 | 0 | 0.0 | 0.0 | 0.00 | 0.03 | 0.00 | 90 | 1005.6 |
| 20260506204403 | 12 | 0 | 0.0 | 0.0 | 0.00 | 0.03 | 0.00 | 90 | 1005.9 |
| 20260506204303 | 12 | 0 | 0.0 | 0.0 | 0.00 | 0.03 | 0.00 | 90 | 1005.6 |
| 20260506204203 | 12 | 0 | 0.0 | 0.0 | 0.00 | 0.03 | 0.00 | 90 | 1005.8 |
| 20260506204104 | 12 | 0 | 0.0 | 0.0 | 0.00 | 0.03 | 0.00 | 90 | 1005.6 |
| 20260506204003 | 12 | 0 | 0.0 | 0.0 | 0.00 | 0.03 | 0.00 | 90 | 1005.5 |
| 20260506203903 | 12 | 0 | 0.0 | 0.0 | 0.00 | 0.03 | 0.00 | 90 | 1005.6 |
| 20260506203804 | 12 | 0 | 0.0 | 0.0 | 0.00 | 0.03 | 0.00 | 90 | 1005.8 |
| 20260506203704 | 12 | 0 | 0.0 | 0.0 | 0.00 | 0.03 | 0.00 | 90 | 1005.4 |
| 20260506203609 | 12 | 0 | 0.0 | 0.0 | 0.00 | 0.03 | 0.00 | 89 | 1005.5 |
| 20260506203503 | 12 | 0 | 0.0 | 0.0 | 0.00 | 0.03 | 0.00 | 89 | 1005.9 |
| 20260506203404 | 12 | 0 | 0.0 | 0.0 | 0.00 | 0.03 | 0.00 | 89 | 1005.5 |
| 20260506203303 | 12 | 0 | 0.0 | 0.0 | 0.00 | 0.03 | 0.00 | 89 | 1005.5 |
| 20260506203218 | 12 | 0 | 0.0 | 0.0 | 0.00 | 0.03 | 0.00 | 89 | 1005.5 |
| 20260506203204 | 12 | 0 | 0.0 | 0.0 | 0.00 | 0.03 | 0.00 | 89 | 1005.6 |
| 20260506203117 | 12 | 0 | 0.0 | 0.0 | 0.00 | 0.03 | 0.00 | 89 | 1005.5 |
| 20260506202904 | 12 | 0 | 0.0 | 0.0 | 0.00 | 0.03 | 0.00 | 89 | 1005.5 |
| 20260506202803 | 12 | 0 | 0.0 | 0.0 | 0.00 | 0.03 | 0.00 | 88 | 1005.6 |
| 20260506202604 | 12 | 0 | 0.0 | 0.0 | 0.00 | 0.03 | 0.00 | 88 | 1005.6 |
| 20260506202504 | 12 | 0 | 0.0 | 0.0 | 0.00 | 0.03 | 0.00 | 88 | 1005.6 |
| 20260506202306 | 12 | 0 | 0.0 | 0.0 | 0.00 | 0.03 | 0.00 | 88 | 1005.4 |
| 20260506202203 | 12 | 0 | 0.0 | 0.0 | 0.00 | 0.03 | 0.00 | 88 | 1005.6 |
| 20260506202003 | 12 | 0 | 0.0 | 0.0 | 0.00 | 0.03 | 0.00 | 88 | 1005.6 |
| 20260506201909 | 12 | 0 | 0.0 | 0.0 | 0.00 | 0.03 | 0.00 | 88 | 1005.6 |
| 20260506201804 | 12 | 0 | 0.0 | 0.0 | 0.00 | 0.03 | 0.00 | 87 | 1005.5 |
| 20260506201705 | 12 | 0 | 0.0 | 0.0 | 0.00 | 0.03 | 0.00 | 87 | 1005.4 |
| 20260506201604 | 12 | 0 | 0.0 | 0.0 | 0.00 | 0.03 | 0.00 | 87 | 1005.5 |
| 20260506201503 | 12 | 0 | 0.0 | 0.0 | 0.00 | 0.03 | 0.00 | 87 | 1005.4 |
| 20260506201404 | 12 | 0 | 0.0 | 0.0 | 0.00 | 0.03 | 0.00 | 86 | 1005.5 |
| 20260506201303 | 12 | 0 | 0.0 | 0.0 | 0.00 | 0.03 | 0.00 | 86 | 1005.5 |
| 20260506201205 | 12 | 0 | 0.0 | 0.0 | 0.00 | 0.03 | 0.00 | 86 | 1005.5 |
| 20260506201104 | 12 | 0 | 0.0 | 0.0 | 0.00 | 0.03 | 0.00 | 86 | 1005.5 |
| 20260506201004 | 12 | 0 | 0.0 | 0.0 | 0.00 | 0.03 | 0.00 | 86 | 1005.5 |
| 20260506200904 | 13 | 0 | 0.0 | 0.0 | 0.00 | 0.03 | 0.00 | 86 | 1005.3 |
| 20260506200817 | 13 | 0 | 0.0 | 0.0 | 0.00 | 0.03 | 0.00 | 85 | 1005.3 |
| 20260506200804 | 13 | 0 | 0.0 | 0.0 | 0.00 | 0.03 | 0.00 | 85 | 1005.4 |
| 20260506200704 | 13 | 0 | 0.0 | 0.0 | 0.00 | 0.03 | 0.00 | 85 | 1005.4 |
| 20260506200505 | 13 | 0 | 0.0 | 0.0 | 0.00 | 0.03 | 0.00 | 85 | 1005.4 |
| 20260506200403 | 13 | 0 | 0.0 | 0.0 | 0.00 | 0.03 | 0.00 | 85 | 1005.5 |
| 20260506200303 | 13 | 0 | 0.0 | 0.0 | 0.00 | 0.03 | 0.00 | 85 | 1005.5 |
| 20260506200203 | 13 | 0 | 0.0 | 0.0 | 0.00 | 0.03 | 0.00 | 85 | 1005.5 |
| 20260506200104 | 13 | 0 | 0.0 | 1.6 | 0.00 | 0.03 | 0.00 | 85 | 1005.5 |
| 20260506200004 | 13 | 0 | 0.0 | 1.6 | 0.00 | 0.03 | 0.00 | 85 | 1005.6 |
| 20260506195903 | 13 | 122 | 0.0 | 1.6 | 0.00 | 0.03 | 0.00 | 85 | 1005.5 |
| 20260506195808 | 13 | 122 | 0.0 | 1.6 | 0.00 | 0.03 | 0.00 | 85 | 1005.8 |
| 20260506195705 | 13 | 122 | 0.0 | 1.6 | 0.00 | 0.03 | 0.00 | 85 | 1005.5 |
| 20260506195603 | 13 | 122 | 0.0 | 1.6 | 0.00 | 0.03 | 0.00 | 85 | 1005.5 |
| 20260506195504 | 13 | 122 | 0.0 | 1.6 | 0.00 | 0.03 | 0.00 | 85 | 1005.5 |
| 20260506195405 | 13 | 122 | 0.0 | 1.6 | 0.00 | 0.03 | 0.00 | 85 | 1005.6 |
| 20260506195306 | 13 | 122 | 0.0 | 1.6 | 0.00 | 0.03 | 0.00 | 85 | 1005.5 |
| 20260506195219 | 13 | 122 | 0.0 | 1.6 | 0.00 | 0.03 | 0.00 | 85 | 1005.5 |
| 20260506195203 | 13 | 122 | 0.0 | 1.6 | 0.00 | 0.03 | 0.00 | 85 | 1005.6 |
| 20260506195103 | 13 | 122 | 0.0 | 1.6 | 0.00 | 0.03 | 0.00 | 85 | 1005.6 |
| 20260506194903 | 13 | 122 | 0.0 | 1.6 | 0.00 | 0.03 | 0.00 | 85 | 1005.6 |
| 20260506194821 | 13 | 122 | 0.0 | 3.2 | 0.00 | 0.03 | 0.00 | 85 | 1005.6 |
| 20260506194804 | 13 | 122 | 0.0 | 3.2 | 0.00 | 0.03 | 0.00 | 85 | 1005.5 |
| 20260506194719 | 13 | 122 | 1.6 | 3.2 | 0.00 | 0.03 | 0.00 | 85 | 1005.5 |
| 20260506194705 | 13 | 122 | 1.6 | 3.2 | 0.00 | 0.03 | 0.00 | 85 | 1005.8 |
| 20260506194404 | 13 | 121 | 1.6 | 3.2 | 0.00 | 0.03 | 0.00 | 85 | 1005.4 |
| 20260506194303 | 13 | 122 | 1.6 | 3.2 | 0.00 | 0.03 | 0.00 | 85 | 1005.9 |
| 20260506194221 | 13 | 125 | 1.6 | 3.2 | 0.00 | 0.03 | 0.00 | 85 | 1005.9 |
| 20260506194204 | 13 | 125 | 1.6 | 3.2 | 0.00 | 0.03 | 0.00 | 85 | 1005.8 |
| 20260506194104 | 13 | 125 | 1.6 | 3.2 | 0.00 | 0.03 | 0.00 | 85 | 1005.8 |
| 20260506193804 | 13 | 127 | 1.6 | 3.2 | 0.00 | 0.03 | 0.00 | 85 | 1005.8 |
| 20260506193703 | 13 | 129 | 0.0 | 1.6 | 0.00 | 0.03 | 0.00 | 84 | 1005.5 |
| 20260506193603 | 14 | 146 | 0.0 | 1.6 | 0.00 | 0.03 | 0.00 | 84 | 1005.4 |
| 20260506193518 | 14 | 168 | 0.0 | 1.6 | 0.00 | 0.03 | 0.00 | 84 | 1005.4 |
| 20260506193503 | 14 | 175 | 0.0 | 1.6 | 0.00 | 0.03 | 0.00 | 84 | 1005.8 |
| 20260506193403 | 14 | 214 | 0.0 | 1.6 | 0.00 | 0.03 | 0.00 | 83 | 1005.8 |
| 20260506193205 | 14 | 248 | 0.0 | 1.6 | 0.00 | 0.03 | 0.00 | 83 | 1005.9 |
| 20260506193104 | 14 | 248 | 0.0 | 1.6 | 0.00 | 0.03 | 0.00 | 82 | 1005.8 |
| 20260506193003 | 14 | 248 | 0.0 | 1.6 | 0.00 | 0.03 | 0.00 | 81 | 1005.5 |
| 20260506192904 | 14 | 248 | 0.0 | 1.6 | 0.00 | 0.03 | 0.00 | 81 | 1005.6 |
| 20260506192804 | 14 | 248 | 0.0 | 1.6 | 0.00 | 0.03 | 0.00 | 81 | 1005.9 |
| 20260506192704 | 14 | 248 | 0.0 | 1.6 | 0.00 | 0.03 | 0.00 | 81 | 1005.5 |
| 20260506192603 | 14 | 248 | 0.0 | 1.6 | 0.00 | 0.03 | 0.00 | 80 | 1005.5 |
| 20260506192505 | 14 | 248 | 0.0 | 1.6 | 0.00 | 0.03 | 0.00 | 80 | 1005.6 |
| 20260506192404 | 14 | 248 | 0.0 | 1.6 | 0.00 | 0.03 | 0.00 | 80 | 1005.6 |
| 20260506192305 | 14 | 248 | 0.0 | 1.6 | 0.00 | 0.03 | 0.00 | 80 | 1005.8 |
| 20260506192103 | 14 | 248 | 0.0 | 1.6 | 0.00 | 0.03 | 0.00 | 80 | 1005.6 |
| 20260506192003 | 15 | 246 | 0.0 | 3.2 | 0.00 | 0.03 | 0.00 | 80 | 1005.6 |
| 20260506191904 | 15 | 242 | 0.0 | 3.2 | 0.00 | 0.03 | 0.00 | 80 | 1005.5 |
| 20260506191803 | 15 | 243 | 1.6 | 4.8 | 0.00 | 0.03 | 0.00 | 79 | 1005.5 |
| 20260506191705 | 15 | 243 | 1.6 | 4.8 | 0.00 | 0.03 | 0.00 | 80 | 1005.8 |
| 20260506191620 | 15 | 244 | 1.6 | 4.8 | 0.00 | 0.03 | 0.00 | 80 | 1005.8 |
| 20260506191604 | 15 | 244 | 1.6 | 4.8 | 0.00 | 0.03 | 0.00 | 79 | 1005.8 |
| 20260506191503 | 15 | 246 | 1.6 | 4.8 | 0.00 | 0.03 | 0.00 | 80 | 1005.6 |
| 20260506191303 | 15 | 246 | 1.6 | 4.8 | 0.00 | 0.03 | 0.00 | 79 | 1005.5 |
| 20260506191205 | 15 | 246 | 1.6 | 4.8 | 0.00 | 0.03 | 0.00 | 79 | 1005.9 |
| 20260506191104 | 15 | 245 | 1.6 | 4.8 | 0.00 | 0.03 | 0.00 | 79 | 1005.6 |
| 20260506191019 | 15 | 245 | 1.6 | 4.8 | 0.00 | 0.03 | 0.00 | 79 | 1005.6 |
| 20260506191003 | 15 | 246 | 1.6 | 4.8 | 0.00 | 0.03 | 0.00 | 79 | 1005.8 |
| 20260506190903 | 15 | 249 | 3.2 | 4.8 | 0.00 | 0.03 | 0.00 | 79 | 1005.6 |
| 20260506190703 | 15 | 250 | 3.2 | 4.8 | 0.00 | 0.03 | 0.00 | 78 | 1005.8 |
| 20260506190617 | 15 | 250 | 3.2 | 4.8 | 0.00 | 0.03 | 0.00 | 79 | 1005.8 |
| 20260506190603 | 15 | 249 | 3.2 | 4.8 | 0.00 | 0.03 | 0.00 | 79 | 1005.6 |
| 20260506190505 | 15 | 248 | 3.2 | 4.8 | 0.00 | 0.03 | 0.00 | 79 | 1005.5 |
| 20260506190305 | 15 | 248 | 1.6 | 4.8 | 0.00 | 0.03 | 0.00 | 78 | 1005.4 |
| 20260506190203 | 15 | 248 | 1.6 | 6.4 | 0.00 | 0.03 | 0.00 | 78 | 1005.6 |
| 20260506190103 | 15 | 247 | 1.6 | 6.4 | 0.00 | 0.03 | 0.00 | 77 | 1005.5 |
| 20260506190018 | 15 | 245 | 1.6 | 6.4 | 0.00 | 0.03 | 0.00 | 77 | 1005.5 |
| 20260506190005 | 15 | 245 | 1.6 | 6.4 | 0.00 | 0.03 | 0.00 | 78 | 1005.4 |
| 20260506185904 | 15 | 242 | 1.6 | 6.4 | 0.00 | 0.03 | 0.00 | 77 | 1005.4 |
| 20260506185720 | 15 | 241 | 1.6 | 6.4 | 0.00 | 0.03 | 0.00 | 77 | 1005.5 |
| 20260506185703 | 15 | 240 | 1.6 | 6.4 | 0.00 | 0.03 | 0.00 | 77 | 1005.5 |
| 20260506185603 | 15 | 238 | 1.6 | 6.4 | 0.00 | 0.03 | 0.00 | 77 | 1005.5 |
| 20260506185518 | 15 | 237 | 1.6 | 6.4 | 0.00 | 0.03 | 0.00 | 77 | 1005.5 |
| 20260506185403 | 15 | 233 | 1.6 | 6.4 | 0.00 | 0.03 | 0.00 | 77 | 1005.5 |
| 20260506185218 | 16 | 232 | 1.6 | 6.4 | 0.00 | 0.03 | 0.00 | 76 | 1005.5 |
| 20260506185203 | 16 | 232 | 1.6 | 6.4 | 0.00 | 0.03 | 0.00 | 76 | 1005.3 |
| 20260506185103 | 16 | 231 | 1.6 | 3.2 | 0.00 | 0.03 | 0.00 | 76 | 1005.3 |
| 20260506184903 | 16 | 233 | 1.6 | 4.8 | 0.00 | 0.03 | 0.00 | 77 | 1005.4 |
| 20260506184820 | 16 | 231 | 1.6 | 4.8 | 0.00 | 0.03 | 0.00 | 76 | 1005.4 |
| 20260506184817 | 16 | 231 | 1.6 | 4.8 | 0.00 | 0.03 | 0.00 | 76 | 1005.3 |
| 20260506184705 | 16 | 230 | 1.6 | 4.8 | 0.00 | 0.03 | 0.00 | 76 | 1005.2 |
| 20260506184505 | 16 | 230 | 1.6 | 4.8 | 0.00 | 0.03 | 0.00 | 75 | 1005.1 |
| 20260506184404 | 16 | 232 | 1.6 | 4.8 | 0.00 | 0.03 | 0.00 | 75 | 1005.2 |
| 20260506184317 | 16 | 232 | 1.6 | 4.8 | 0.00 | 0.03 | 0.00 | 75 | 1005.2 |
| 20260506184305 | 16 | 232 | 1.6 | 4.8 | 0.00 | 0.03 | 0.00 | 75 | 1005.3 |
| 20260506184203 | 16 | 232 | 1.6 | 4.8 | 0.00 | 0.03 | 0.00 | 74 | 1005.2 |
| 20260506184005 | 16 | 234 | 1.6 | 4.8 | 0.00 | 0.03 | 0.00 | 74 | 1005.1 |
| 20260506183903 | 16 | 234 | 1.6 | 4.8 | 0.00 | 0.03 | 0.00 | 73 | 1005.1 |
| 20260506183804 | 16 | 237 | 1.6 | 4.8 | 0.00 | 0.03 | 0.00 | 74 | 1005.1 |
| 20260506183704 | 16 | 240 | 1.6 | 6.4 | 0.00 | 0.03 | 0.00 | 74 | 1005.0 |
| 20260506183504 | 16 | 244 | 1.6 | 6.4 | 0.00 | 0.03 | 0.00 | 73 | 1005.1 |
| 20260506183405 | 16 | 244 | 1.6 | 6.4 | 0.00 | 0.03 | 0.00 | 73 | 1005.0 |
| 20260506183303 | 17 | 245 | 1.6 | 6.4 | 0.00 | 0.03 | 0.00 | 73 | 1005.2 |
| 20260506183203 | 17 | 245 | 1.6 | 6.4 | 0.00 | 0.03 | 0.00 | 72 | 1005.0 |
| 20260506183117 | 17 | 245 | 1.6 | 6.4 | 0.00 | 0.03 | 0.00 | 72 | 1005.2 |
| 20260506183105 | 17 | 244 | 3.2 | 6.4 | 0.00 | 0.03 | 0.00 | 72 | 1005.2 |
| 20260506183005 | 17 | 245 | 3.2 | 6.4 | 0.00 | 0.03 | 0.00 | 70 | 1005.2 |
| 20260506182918 | 17 | 245 | 3.2 | 6.4 | 0.00 | 0.03 | 0.00 | 70 | 1005.2 |
| 20260506182803 | 17 | 247 | 3.2 | 6.4 | 0.00 | 0.03 | 0.00 | 72 | 1005.1 |
| 20260506182504 | 17 | 251 | 1.6 | 4.8 | 0.00 | 0.03 | 0.00 | 71 | 1004.9 |
| 20260506182403 | 17 | 252 | 1.6 | 4.8 | 0.00 | 0.03 | 0.00 | 69 | 1005.0 |
| 20260506182306 | 17 | 252 | 1.6 | 4.8 | 0.00 | 0.03 | 0.00 | 70 | 1005.1 |
| 20260506182204 | 17 | 251 | 1.6 | 4.8 | 0.00 | 0.03 | 0.00 | 70 | 1004.7 |
| 20260506182104 | 17 | 252 | 1.6 | 4.8 | 0.00 | 0.03 | 0.00 | 69 | 1004.9 |
| 20260506182004 | 17 | 252 | 1.6 | 4.8 | 0.00 | 0.03 | 0.00 | 68 | 1004.9 |
| 20260506181904 | 17 | 253 | 1.6 | 4.8 | 0.00 | 0.03 | 0.00 | 69 | 1004.9 |
| 20260506181803 | 17 | 253 | 1.6 | 4.8 | 0.00 | 0.03 | 0.00 | 68 | 1004.7 |
| 20260506181704 | 17 | 251 | 1.6 | 4.8 | 0.00 | 0.03 | 0.00 | 69 | 1004.8 |
| 20260506181603 | 17 | 249 | 1.6 | 4.8 | 0.00 | 0.03 | 0.00 | 67 | 1004.8 |
| 20260506181504 | 17 | 249 | 1.6 | 4.8 | 0.00 | 0.03 | 0.00 | 68 | 1004.8 |
| 20260506181403 | 18 | 246 | 1.6 | 4.8 | 0.00 | 0.03 | 0.00 | 68 | 1004.7 |
| 20260506181319 | 18 | 245 | 1.6 | 4.8 | 0.00 | 0.03 | 0.00 | 68 | 1004.7 |
| 20260506181204 | 18 | 246 | 1.6 | 4.8 | 0.00 | 0.03 | 0.00 | 68 | 1004.7 |
| 20260506181004 | 18 | 246 | 1.6 | 4.8 | 0.00 | 0.03 | 0.00 | 68 | 1004.6 |
| 20260506180905 | 18 | 244 | 1.6 | 4.8 | 0.00 | 0.03 | 0.00 | 68 | 1004.7 |
| 20260506180804 | 18 | 243 | 1.6 | 4.8 | 0.00 | 0.03 | 0.00 | 68 | 1004.7 |
| 20260506180705 | 18 | 242 | 1.6 | 4.8 | 0.00 | 0.03 | 0.00 | 66 | 1004.7 |
| 20260506180603 | 18 | 243 | 1.6 | 6.4 | 0.00 | 0.03 | 0.00 | 66 | 1004.6 |
| 20260506180503 | 18 | 244 | 1.6 | 6.4 | 0.00 | 0.03 | 0.00 | 67 | 1004.7 |
| 20260506180403 | 18 | 244 | 1.6 | 6.4 | 0.00 | 0.03 | 0.00 | 66 | 1004.5 |
| 20260506180303 | 18 | 245 | 1.6 | 6.4 | 0.00 | 0.03 | 0.00 | 66 | 1004.5 |
| 20260506180204 | 18 | 246 | 1.6 | 6.4 | 0.00 | 0.03 | 0.00 | 65 | 1004.6 |
| 20260506180103 | 18 | 248 | 1.6 | 6.4 | 0.00 | 0.03 | 0.00 | 65 | 1004.6 |
| 20260506180005 | 18 | 249 | 1.6 | 6.4 | 0.00 | 0.03 | 0.00 | 64 | 1004.7 |
| 20260506175903 | 18 | 251 | 1.6 | 6.4 | 0.00 | 0.03 | 0.00 | 64 | 1004.4 |
| 20260506175803 | 19 | 252 | 1.6 | 11.3 | 0.00 | 0.03 | 0.00 | 66 | 1004.5 |
| 20260506175704 | 19 | 255 | 3.2 | 11.3 | 0.00 | 0.03 | 0.00 | 63 | 1004.5 |
| 20260506175604 | 19 | 255 | 3.2 | 11.3 | 0.00 | 0.03 | 0.00 | 63 | 1004.5 |
| 20260506175503 | 19 | 255 | 3.2 | 11.3 | 0.00 | 0.03 | 0.00 | 62 | 1004.5 |
| 20260506175404 | 19 | 256 | 3.2 | 11.3 | 0.00 | 0.03 | 0.00 | 64 | 1004.6 |
| 20260506175306 | 19 | 254 | 3.2 | 11.3 | 0.00 | 0.03 | 0.00 | 64 | 1004.4 |
| 20260506175204 | 19 | 253 | 3.2 | 11.3 | 0.00 | 0.03 | 0.00 | 63 | 1004.5 |
| 20260506175105 | 19 | 252 | 3.2 | 11.3 | 0.00 | 0.03 | 0.00 | 62 | 1004.6 |
| 20260506175003 | 19 | 252 | 3.2 | 12.9 | 0.00 | 0.03 | 0.00 | 62 | 1004.4 |
| 20260506174903 | 19 | 251 | 3.2 | 12.9 | 0.00 | 0.03 | 0.00 | 62 | 1004.5 |
| 20260506174820 | 20 | 250 | 3.2 | 12.9 | 0.00 | 0.03 | 0.00 | 62 | 1004.5 |
| 20260506174803 | 20 | 250 | 3.2 | 12.9 | 0.00 | 0.03 | 0.00 | 62 | 1004.3 |
| 20260506174704 | 20 | 249 | 3.2 | 12.9 | 0.00 | 0.03 | 0.00 | 60 | 1004.4 |
| 20260506174504 | 20 | 247 | 3.2 | 12.9 | 0.00 | 0.03 | 0.00 | 61 | 1004.4 |
| 20260506174404 | 20 | 248 | 3.2 | 12.9 | 0.00 | 0.03 | 0.00 | 61 | 1004.5 |
| 20260506174309 | 20 | 250 | 3.2 | 12.9 | 0.00 | 0.03 | 0.00 | 61 | 1004.4 |
| 20260506174203 | 20 | 252 | 3.2 | 12.9 | 0.00 | 0.03 | 0.00 | 61 | 1004.3 |
| 20260506174103 | 20 | 256 | 3.2 | 12.9 | 0.00 | 0.03 | 0.00 | 59 | 1004.4 |
| 20260506174003 | 20 | 256 | 3.2 | 12.9 | 0.00 | 0.03 | 0.00 | 59 | 1004.3 |
| 20260506173919 | 20 | 256 | 3.2 | 12.9 | 0.00 | 0.03 | 0.00 | 59 | 1004.3 |
| 20260506173903 | 20 | 257 | 3.2 | 12.9 | 0.00 | 0.03 | 0.00 | 60 | 1004.5 |
| 20260506173803 | 20 | 260 | 3.2 | 6.4 | 0.00 | 0.03 | 0.00 | 59 | 1004.3 |
| 20260506173604 | 20 | 263 | 3.2 | 9.7 | 0.00 | 0.03 | 0.00 | 59 | 1004.4 |
| 20260506173403 | 20 | 266 | 4.8 | 9.7 | 0.00 | 0.03 | 0.00 | 58 | 1004.3 |
| 20260506173304 | 20 | 265 | 4.8 | 11.3 | 0.00 | 0.03 | 0.00 | 57 | 1004.4 |
| 20260506173204 | 20 | 265 | 4.8 | 11.3 | 0.00 | 0.03 | 0.00 | 57 | 1004.3 |
| 20260506173105 | 20 | 266 | 4.8 | 11.3 | 0.00 | 0.03 | 0.00 | 56 | 1004.3 |
| 20260506173003 | 20 | 267 | 4.8 | 11.3 | 0.00 | 0.03 | 0.00 | 57 | 1004.2 |
| 20260506172917 | 20 | 267 | 4.8 | 11.3 | 0.00 | 0.03 | 0.00 | 56 | 1004.2 |
| 20260506172903 | 20 | 268 | 4.8 | 11.3 | 0.00 | 0.03 | 0.00 | 56 | 1004.3 |
| 20260506172804 | 20 | 268 | 4.8 | 11.3 | 0.00 | 0.03 | 0.00 | 56 | 1004.4 |
| 20260506172603 | 21 | 268 | 4.8 | 11.3 | 0.00 | 0.03 | 0.00 | 55 | 1004.2 |
| 20260506172504 | 21 | 269 | 4.8 | 11.3 | 0.00 | 0.03 | 0.00 | 56 | 1004.3 |
| 20260506172403 | 21 | 270 | 4.8 | 11.3 | 0.00 | 0.03 | 0.00 | 55 | 1004.3 |
| 20260506172307 | 21 | 271 | 4.8 | 11.3 | 0.00 | 0.03 | 0.00 | 55 | 1004.3 |
| 20260506172219 | 21 | 272 | 4.8 | 11.3 | 0.00 | 0.03 | 0.00 | 55 | 1004.3 |
| 20260506172203 | 21 | 272 | 4.8 | 11.3 | 0.00 | 0.03 | 0.00 | 55 | 1004.2 |
| 20260506172105 | 21 | 273 | 4.8 | 9.7 | 0.00 | 0.03 | 0.00 | 55 | 1004.2 |
| 20260506171903 | 21 | 271 | 4.8 | 9.7 | 0.00 | 0.03 | 0.00 | 54 | 1004.2 |
| 20260506171805 | 21 | 272 | 4.8 | 9.7 | 0.00 | 0.03 | 0.00 | 54 | 1004.1 |
| 20260506171705 | 21 | 272 | 4.8 | 11.3 | 0.00 | 0.03 | 0.00 | 54 | 1004.3 |
| 20260506171604 | 21 | 272 | 4.8 | 11.3 | 0.00 | 0.03 | 0.00 | 54 | 1004.2 |
| 20260506171503 | 21 | 270 | 4.8 | 11.3 | 0.00 | 0.03 | 0.00 | 54 | 1004.1 |
| 20260506171404 | 21 | 270 | 6.4 | 11.3 | 0.00 | 0.03 | 0.00 | 54 | 1004.2 |
| 20260506171304 | 21 | 268 | 4.8 | 11.3 | 0.00 | 0.03 | 0.00 | 54 | 1004.3 |
| 20260506171203 | 21 | 268 | 4.8 | 11.3 | 0.00 | 0.03 | 0.00 | 53 | 1004.0 |
| 20260506171103 | 21 | 267 | 4.8 | 11.3 | 0.00 | 0.03 | 0.00 | 53 | 1004.3 |
| 20260506171003 | 21 | 266 | 4.8 | 11.3 | 0.00 | 0.03 | 0.00 | 53 | 1004.1 |
| 20260506170917 | 21 | 267 | 4.8 | 11.3 | 0.00 | 0.03 | 0.00 | 53 | 1004.1 |
| 20260506170903 | 21 | 268 | 4.8 | 11.3 | 0.00 | 0.03 | 0.00 | 53 | 1004.2 |
| 20260506170804 | 21 | 270 | 4.8 | 12.9 | 0.00 | 0.03 | 0.00 | 53 | 1003.9 |
| 20260506170603 | 21 | 273 | 4.8 | 12.9 | 0.00 | 0.03 | 0.00 | 52 | 1004.2 |
| 20260506170504 | 21 | 274 | 6.4 | 16.1 | 0.00 | 0.03 | 0.00 | 53 | 1004.0 |
| 20260506170403 | 21 | 271 | 6.4 | 20.9 | 0.00 | 0.03 | 0.00 | 52 | 1004.1 |
| 20260506170317 | 21 | 271 | 6.4 | 20.9 | 0.00 | 0.03 | 0.00 | 52 | 1004.0 |
| 20260506170304 | 21 | 272 | 6.4 | 20.9 | 0.00 | 0.03 | 0.00 | 52 | 1004.0 |
| 20260506170204 | 22 | 273 | 8.0 | 20.9 | 0.00 | 0.03 | 0.00 | 52 | 1004.0 |
| 20260506170004 | 22 | 274 | 8.0 | 20.9 | 0.00 | 0.03 | 0.00 | 52 | 1003.9 |
| 20260506165903 | 22 | 273 | 9.7 | 20.9 | 0.00 | 0.03 | 0.00 | 51 | 1004.1 |
| 20260506165804 | 22 | 272 | 9.7 | 20.9 | 0.00 | 0.03 | 0.00 | 51 | 1004.1 |
| 20260506165703 | 22 | 269 | 9.7 | 20.9 | 0.00 | 0.03 | 0.00 | 51 | 1004.0 |
| 20260506165604 | 22 | 269 | 9.7 | 20.9 | 0.00 | 0.03 | 0.00 | 50 | 1003.9 |
| 20260506165503 | 22 | 268 | 9.7 | 20.9 | 0.00 | 0.03 | 0.00 | 51 | 1004.0 |
| 20260506165403 | 22 | 269 | 8.0 | 20.9 | 0.00 | 0.03 | 0.00 | 50 | 1004.1 |
| 20260506165305 | 22 | 269 | 8.0 | 20.9 | 0.00 | 0.03 | 0.00 | 50 | 1004.0 |
| 20260506165203 | 22 | 267 | 8.0 | 20.9 | 0.00 | 0.03 | 0.00 | 50 | 1003.8 |
| 20260506165104 | 22 | 268 | 8.0 | 20.9 | 0.00 | 0.03 | 0.00 | 50 | 1004.0 |
| 20260506165018 | 22 | 266 | 8.0 | 20.9 | 0.00 | 0.03 | 0.00 | 49 | 1004.0 |
| 20260506165003 | 22 | 265 | 8.0 | 20.9 | 0.00 | 0.03 | 0.00 | 49 | 1004.0 |
| 20260506164903 | 22 | 264 | 6.4 | 20.9 | 0.00 | 0.03 | 0.00 | 49 | 1004.0 |
| 20260506164718 | 22 | 272 | 6.4 | 20.9 | 0.00 | 0.03 | 0.00 | 49 | 1004.0 |
| 20260506164704 | 22 | 273 | 8.0 | 20.9 | 0.00 | 0.03 | 0.00 | 49 | 1004.1 |
| 20260506164605 | 22 | 270 | 8.0 | 20.9 | 0.00 | 0.03 | 0.00 | 49 | 1003.9 |
| 20260506164519 | 22 | 271 | 8.0 | 20.9 | 0.00 | 0.03 | 0.00 | 48 | 1003.9 |
| 20260506164403 | 22 | 269 | 8.0 | 20.9 | 0.00 | 0.03 | 0.00 | 48 | 1004.0 |
| 20260506164203 | 22 | 268 | 9.7 | 22.5 | 0.00 | 0.03 | 0.00 | 48 | 1004.0 |
| 20260506164103 | 22 | 266 | 9.7 | 22.5 | 0.00 | 0.03 | 0.00 | 48 | 1003.9 |
| 20260506164004 | 22 | 268 | 11.3 | 22.5 | 0.00 | 0.03 | 0.00 | 48 | 1003.9 |
| 20260506163904 | 22 | 267 | 11.3 | 22.5 | 0.00 | 0.03 | 0.00 | 48 | 1003.9 |
| 20260506163804 | 22 | 265 | 11.3 | 33.8 | 0.00 | 0.03 | 0.00 | 47 | 1003.7 |
| 20260506163704 | 22 | 262 | 11.3 | 33.8 | 0.00 | 0.03 | 0.00 | 47 | 1003.9 |
| 20260506163604 | 22 | 265 | 11.3 | 33.8 | 0.00 | 0.03 | 0.00 | 47 | 1004.1 |
| 20260506163504 | 22 | 264 | 11.3 | 33.8 | 0.00 | 0.03 | 0.00 | 48 | 1003.8 |
| 20260506163403 | 22 | 265 | 12.9 | 33.8 | 0.00 | 0.03 | 0.00 | 48 | 1003.9 |
| 20260506163319 | 22 | 266 | 12.9 | 33.8 | 0.00 | 0.03 | 0.00 | 47 | 1003.9 |
| 20260506163303 | 22 | 267 | 12.9 | 33.8 | 0.00 | 0.03 | 0.00 | 47 | 1004.0 |
| 20260506163204 | 22 | 268 | 12.9 | 33.8 | 0.00 | 0.03 | 0.00 | 47 | 1003.9 |
| 20260506163019 | 22 | 268 | 11.3 | 33.8 | 0.00 | 0.03 | 0.00 | 47 | 1003.9 |
| 20260506163004 | 22 | 268 | 11.3 | 33.8 | 0.00 | 0.03 | 0.00 | 47 | 1003.9 |
| 20260506162903 | 22 | 270 | 12.9 | 33.8 | 0.00 | 0.03 | 0.00 | 47 | 1003.9 |
| 20260506162704 | 23 | 270 | 12.9 | 33.8 | 0.00 | 0.03 | 0.00 | 47 | 1003.8 |
| 20260506162617 | 23 | 267 | 11.3 | 27.4 | 0.00 | 0.03 | 0.00 | 47 | 1003.8 |
| 20260506162603 | 23 | 268 | 11.3 | 27.4 | 0.00 | 0.03 | 0.00 | 47 | 1003.9 |
| 20260506162503 | 23 | 271 | 12.9 | 27.4 | 0.00 | 0.03 | 0.00 | 47 | 1004.0 |
| 20260506162307 | 23 | 268 | 11.3 | 27.4 | 0.00 | 0.03 | 0.00 | 46 | 1003.8 |
| 20260506162203 | 23 | 268 | 11.3 | 27.4 | 0.00 | 0.03 | 0.00 | 45 | 1004.0 |
| 20260506162104 | 23 | 268 | 11.3 | 27.4 | 0.00 | 0.03 | 0.00 | 46 | 1003.9 |
| 20260506162003 | 23 | 269 | 11.3 | 27.4 | 0.00 | 0.03 | 0.00 | 45 | 1003.7 |
| 20260506161904 | 23 | 268 | 11.3 | 27.4 | 0.00 | 0.03 | 0.00 | 45 | 1003.9 |
| 20260506161804 | 23 | 268 | 11.3 | 27.4 | 0.00 | 0.03 | 0.00 | 45 | 1003.9 |
| 20260506161705 | 23 | 267 | 11.3 | 27.4 | 0.00 | 0.03 | 0.00 | 45 | 1003.7 |
| 20260506161604 | 23 | 265 | 11.3 | 27.4 | 0.00 | 0.03 | 0.00 | 45 | 1003.6 |
| 20260506161517 | 23 | 262 | 9.7 | 25.7 | 0.00 | 0.03 | 0.00 | 46 | 1003.6 |
| 20260506161504 | 23 | 262 | 9.7 | 25.7 | 0.00 | 0.03 | 0.00 | 46 | 1003.7 |
| 20260506161403 | 23 | 263 | 11.3 | 27.4 | 0.00 | 0.03 | 0.00 | 45 | 1003.6 |
| 20260506161204 | 23 | 262 | 11.3 | 35.4 | 0.00 | 0.03 | 0.00 | 44 | 1003.7 |
| 20260506161104 | 23 | 261 | 11.3 | 35.4 | 0.00 | 0.03 | 0.00 | 44 | 1003.8 |
| 20260506161004 | 23 | 260 | 12.9 | 35.4 | 0.00 | 0.03 | 0.00 | 44 | 1003.7 |
| 20260506160904 | 23 | 258 | 12.9 | 35.4 | 0.00 | 0.03 | 0.00 | 44 | 1003.7 |
| 20260506160804 | 23 | 257 | 12.9 | 35.4 | 0.00 | 0.03 | 0.00 | 45 | 1003.8 |
| 20260506160704 | 23 | 257 | 12.9 | 35.4 | 0.00 | 0.03 | 0.00 | 45 | 1003.8 |
| 20260506160604 | 23 | 260 | 14.5 | 35.4 | 0.00 | 0.03 | 0.00 | 44 | 1003.5 |
| 20260506160504 | 23 | 260 | 14.5 | 35.4 | 0.00 | 0.03 | 0.00 | 44 | 1003.6 |
| 20260506160403 | 23 | 260 | 14.5 | 35.4 | 0.00 | 0.03 | 0.00 | 44 | 1003.7 |
| 20260506160304 | 23 | 260 | 14.5 | 35.4 | 0.00 | 0.03 | 0.00 | 44 | 1003.6 |
| 20260506160205 | 23 | 261 | 14.5 | 35.4 | 0.00 | 0.03 | 0.00 | 43 | 1003.5 |
| 20260506160105 | 23 | 260 | 12.9 | 35.4 | 0.00 | 0.03 | 0.00 | 43 | 1003.7 |
| 20260506160016 | 24 | 260 | 12.9 | 33.8 | 0.00 | 0.03 | 0.00 | 42 | 1003.7 |
| 20260506160005 | 24 | 259 | 12.9 | 33.8 | 0.00 | 0.03 | 0.00 | 42 | 1003.7 |
| 20260506155904 | 24 | 262 | 12.9 | 33.8 | 0.00 | 0.03 | 0.00 | 42 | 1003.6 |
| 20260506155703 | 24 | 267 | 11.3 | 33.8 | 0.00 | 0.03 | 0.00 | 42 | 1003.6 |
| 20260506155605 | 24 | 266 | 9.7 | 33.8 | 0.00 | 0.03 | 0.00 | 43 | 1003.6 |
| 20260506155503 | 24 | 265 | 9.7 | 33.8 | 0.00 | 0.03 | 0.00 | 44 | 1003.6 |
| 20260506155404 | 24 | 266 | 9.7 | 33.8 | 0.00 | 0.03 | 0.00 | 43 | 1003.5 |
| 20260506155306 | 24 | 263 | 9.7 | 24.1 | 0.00 | 0.03 | 0.00 | 42 | 1003.5 |
| 20260506155205 | 24 | 263 | 9.7 | 24.1 | 0.00 | 0.03 | 0.00 | 42 | 1003.6 |
| 20260506155103 | 24 | 264 | 9.7 | 24.1 | 0.00 | 0.03 | 0.00 | 42 | 1003.6 |
| 20260506155004 | 24 | 262 | 8.0 | 22.5 | 0.00 | 0.03 | 0.00 | 43 | 1003.6 |
| 20260506154903 | 25 | 259 | 8.0 | 22.5 | 0.00 | 0.03 | 0.00 | 43 | 1003.7 |
| 20260506154819 | 25 | 259 | 8.0 | 25.7 | 0.00 | 0.03 | 0.00 | 43 | 1003.7 |
| 20260506154804 | 25 | 259 | 9.7 | 25.7 | 0.00 | 0.03 | 0.00 | 43 | 1003.6 |
| 20260506154704 | 24 | 253 | 9.7 | 25.7 | 0.00 | 0.03 | 0.00 | 42 | 1003.5 |
| 20260506154503 | 25 | 247 | 11.3 | 27.4 | 0.00 | 0.03 | 0.00 | 41 | 1003.6 |
| 20260506154404 | 25 | 242 | 11.3 | 27.4 | 0.00 | 0.03 | 0.00 | 42 | 1003.6 |
| 20260506154304 | 25 | 244 | 11.3 | 27.4 | 0.00 | 0.03 | 0.00 | 42 | 1003.6 |
| 20260506154204 | 25 | 242 | 11.3 | 27.4 | 0.00 | 0.03 | 0.00 | 41 | 1003.6 |
| 20260506154104 | 24 | 241 | 11.3 | 27.4 | 0.00 | 0.03 | 0.00 | 42 | 1003.5 |
| 20260506154003 | 24 | 242 | 11.3 | 27.4 | 0.00 | 0.03 | 0.00 | 42 | 1003.5 |
| 20260506153817 | 24 | 243 | 11.3 | 27.4 | 0.00 | 0.03 | 0.00 | 41 | 1003.5 |
| 20260506153804 | 24 | 242 | 11.3 | 27.4 | 0.00 | 0.03 | 0.00 | 41 | 1003.6 |
| 20260506153704 | 24 | 244 | 9.7 | 27.4 | 0.00 | 0.03 | 0.00 | 41 | 1003.4 |
| 20260506153517 | 24 | 248 | 8.0 | 27.4 | 0.00 | 0.03 | 0.00 | 41 | 1003.5 |
| 20260506153503 | 24 | 248 | 8.0 | 27.4 | 0.00 | 0.03 | 0.00 | 41 | 1003.8 |
| 20260506153419 | 24 | 253 | 8.0 | 27.4 | 0.00 | 0.03 | 0.00 | 41 | 1003.8 |
| 20260506153403 | 24 | 255 | 8.0 | 27.4 | 0.00 | 0.03 | 0.00 | 43 | 1003.4 |
| 20260506153104 | 24 | 255 | 6.4 | 20.9 | 0.00 | 0.03 | 0.00 | 42 | 1003.6 |
| 20260506153003 | 23 | 259 | 6.4 | 22.5 | 0.00 | 0.03 | 0.00 | 43 | 1003.5 |
| 20260506152904 | 23 | 263 | 6.4 | 22.5 | 0.00 | 0.03 | 0.00 | 43 | 1003.7 |
| 20260506152804 | 23 | 261 | 8.0 | 22.5 | 0.00 | 0.03 | 0.00 | 42 | 1003.4 |
| 20260506152704 | 23 | 263 | 8.0 | 22.5 | 0.00 | 0.03 | 0.00 | 43 | 1003.6 |
| 20260506152621 | 23 | 263 | 8.0 | 22.5 | 0.00 | 0.03 | 0.00 | 42 | 1003.6 |
| 20260506152604 | 23 | 264 | 8.0 | 24.1 | 0.00 | 0.03 | 0.00 | 42 | 1003.6 |
| 20260506152503 | 23 | 266 | 9.7 | 24.1 | 0.00 | 0.03 | 0.00 | 43 | 1003.6 |
| 20260506152320 | 23 | 265 | 9.7 | 27.4 | 0.00 | 0.03 | 0.00 | 43 | 1003.5 |
| 20260506152306 | 23 | 265 | 9.7 | 27.4 | 0.00 | 0.03 | 0.00 | 43 | 1003.6 |
| 20260506152203 | 23 | 264 | 9.7 | 27.4 | 0.00 | 0.03 | 0.00 | 44 | 1003.8 |
| 20260506152003 | 23 | 262 | 11.3 | 27.4 | 0.00 | 0.03 | 0.00 | 43 | 1003.5 |
| 20260506151903 | 23 | 260 | 9.7 | 27.4 | 0.00 | 0.03 | 0.00 | 43 | 1003.6 |
| 20260506151817 | 23 | 261 | 9.7 | 27.4 | 0.00 | 0.03 | 0.00 | 41 | 1003.6 |
| 20260506151803 | 23 | 262 | 9.7 | 27.4 | 0.00 | 0.03 | 0.00 | 41 | 1003.4 |
| 20260506151703 | 24 | 259 | 11.3 | 27.4 | 0.00 | 0.03 | 0.00 | 42 | 1003.6 |
| 20260506151521 | 24 | 258 | 11.3 | 27.4 | 0.00 | 0.03 | 0.00 | 41 | 1003.4 |
| 20260506151503 | 24 | 258 | 9.7 | 27.4 | 0.00 | 0.03 | 0.00 | 41 | 1003.4 |
| 20260506151403 | 24 | 258 | 9.7 | 27.4 | 0.00 | 0.03 | 0.00 | 41 | 1003.3 |
| 20260506151221 | 24 | 253 | 9.7 | 27.4 | 0.00 | 0.03 | 0.00 | 42 | 1003.3 |
| 20260506151204 | 24 | 253 | 9.7 | 27.4 | 0.00 | 0.03 | 0.00 | 42 | 1003.4 |
| 20260506151104 | 25 | 250 | 9.7 | 27.4 | 0.00 | 0.03 | 0.00 | 43 | 1003.3 |
| 20260506150903 | 25 | 248 | 11.3 | 27.4 | 0.00 | 0.03 | 0.00 | 41 | 1003.3 |
| 20260506150805 | 25 | 242 | 11.3 | 27.4 | 0.00 | 0.10 | 0.00 | 40 | 1003.4 |
| 20260506150703 | 25 | 241 | 11.3 | 25.7 | 0.00 | 0.18 | 0.00 | 40 | 1003.5 |
| 20260506150603 | 25 | 238 | 11.3 | 25.7 | 0.00 | 0.28 | 0.00 | 41 | 1003.4 |
| 20260506150504 | 25 | 237 | 11.3 | 25.7 | 0.00 | 0.36 | 0.00 | 41 | 1003.2 |
| 20260506150404 | 25 | 240 | 11.3 | 25.7 | 0.00 | 0.38 | 0.00 | 41 | 1003.5 |
| 20260506150305 | 25 | 242 | 11.3 | 25.7 | 0.00 | 0.38 | 0.00 | 41 | 1003.3 |
| 20260506150203 | 25 | 239 | 11.3 | 33.8 | 0.00 | 0.38 | 0.00 | 40 | 1003.3 |
| 20260506150104 | 25 | 238 | 11.3 | 33.8 | 0.00 | 0.38 | 0.00 | 40 | 1003.4 |
| 20260506150003 | 25 | 239 | 11.3 | 33.8 | 0.00 | 0.38 | 0.00 | 40 | 1003.2 |
| 20260506145918 | 25 | 239 | 11.3 | 33.8 | 0.00 | 0.38 | 0.00 | 40 | 1003.2 |
| 20260506145904 | 24 | 239 | 11.3 | 33.8 | 0.00 | 0.38 | 0.00 | 41 | 1003.2 |
| 20260506145803 | 24 | 244 | 11.3 | 33.8 | 0.00 | 0.38 | 0.00 | 41 | 1003.4 |
| 20260506145603 | 24 | 249 | 11.3 | 33.8 | 0.00 | 0.38 | 0.00 | 41 | 1003.4 |
| 20260506145504 | 24 | 249 | 11.3 | 33.8 | 0.00 | 0.38 | 0.00 | 41 | 1003.3 |
| 20260506145415 | 24 | 247 | 11.3 | 33.8 | 0.00 | 0.38 | 0.00 | 41 | 1003.3 |
| 20260506145103 | 24 | 254 | 12.9 | 33.8 | 0.00 | 0.38 | 0.00 | 40 | 1003.4 |
| 20260506145003 | 24 | 256 | 11.3 | 27.4 | 0.00 | 0.38 | 0.00 | 40 | 1003.3 |
| 20260506144904 | 24 | 258 | 11.3 | 27.4 | 0.00 | 0.38 | 0.00 | 39 | 1003.4 |
| 20260506144803 | 24 | 258 | 11.3 | 27.4 | 0.00 | 0.38 | 0.00 | 39 | 1003.4 |
| 20260506144703 | 24 | 257 | 11.3 | 27.4 | 0.00 | 0.38 | 0.00 | 38 | 1003.3 |
| 20260506144616 | 24 | 257 | 11.3 | 25.7 | 0.00 | 0.38 | 0.00 | 39 | 1003.2 |
| 20260506144603 | 24 | 255 | 11.3 | 25.7 | 0.00 | 0.38 | 0.00 | 39 | 1003.2 |
| 20260506144504 | 24 | 255 | 11.3 | 27.4 | 0.00 | 0.38 | 0.00 | 38 | 1003.3 |
| 20260506144303 | 24 | 257 | 12.9 | 29.0 | 0.00 | 0.38 | 0.00 | 38 | 1003.4 |
| 20260506144204 | 24 | 256 | 12.9 | 29.0 | 0.00 | 0.38 | 0.00 | 38 | 1003.3 |
| 20260506144104 | 24 | 257 | 12.9 | 29.0 | 0.00 | 0.38 | 0.00 | 37 | 1003.3 |
| 20260506144005 | 24 | 258 | 12.9 | 29.0 | 0.00 | 0.38 | 0.00 | 38 | 1003.2 |
| 20260506143905 | 25 | 257 | 12.9 | 29.0 | 0.00 | 0.38 | 0.00 | 38 | 1003.4 |
| 20260506143804 | 25 | 255 | 12.9 | 29.0 | 0.00 | 0.38 | 0.00 | 36 | 1003.2 |
| 20260506143704 | 25 | 251 | 12.9 | 29.0 | 0.00 | 0.38 | 0.00 | 36 | 1003.2 |
| 20260506143604 | 25 | 247 | 12.9 | 29.0 | 0.00 | 0.38 | 0.00 | 36 | 1003.2 |
| 20260506143517 | 25 | 245 | 12.9 | 29.0 | 0.00 | 0.38 | 0.00 | 36 | 1003.2 |
| 20260506143505 | 25 | 244 | 11.3 | 29.0 | 0.00 | 0.38 | 0.00 | 36 | 1003.2 |
| 20260506143404 | 25 | 241 | 11.3 | 29.0 | 0.00 | 0.38 | 0.00 | 36 | 1003.3 |
| 20260506143204 | 25 | 229 | 9.7 | 29.0 | 0.00 | 0.38 | 0.00 | 36 | 1003.3 |
| 20260506143104 | 25 | 223 | 8.0 | 25.7 | 0.00 | 0.38 | 0.00 | 36 | 1003.1 |
| 20260506143004 | 25 | 217 | 8.0 | 25.7 | 0.00 | 0.38 | 0.00 | 37 | 1003.1 |
| 20260506142917 | 25 | 215 | 9.7 | 25.7 | 0.00 | 0.38 | 0.00 | 36 | 1003.1 |
| 20260506142904 | 25 | 214 | 9.7 | 25.7 | 0.00 | 0.38 | 0.00 | 36 | 1003.1 |
| 20260506142805 | 25 | 215 | 9.7 | 25.7 | 0.00 | 0.38 | 0.00 | 36 | 1003.1 |
| 20260506142604 | 26 | 219 | 9.7 | 25.7 | 0.00 | 0.38 | 0.00 | 35 | 1003.2 |
| 20260506142505 | 26 | 220 | 9.7 | 25.7 | 0.00 | 0.38 | 0.00 | 34 | 1003.0 |
| 20260506142403 | 26 | 213 | 9.7 | 25.7 | 0.00 | 0.38 | 0.00 | 35 | 1002.9 |
| 20260506142306 | 26 | 212 | 11.3 | 25.7 | 0.00 | 0.38 | 0.00 | 36 | 1003.0 |
| 20260506142203 | 26 | 213 | 11.3 | 37.0 | 0.00 | 0.38 | 0.00 | 36 | 1002.9 |
| 20260506142103 | 26 | 218 | 11.3 | 37.0 | 0.00 | 0.38 | 0.00 | 34 | 1003.1 |
| 20260506142004 | 26 | 220 | 12.9 | 37.0 | 0.00 | 0.38 | 0.00 | 34 | 1003.0 |
| 20260506141903 | 26 | 218 | 11.3 | 37.0 | 0.00 | 0.38 | 0.00 | 35 | 1003.0 |
| 20260506141804 | 26 | 221 | 11.3 | 37.0 | 0.00 | 0.38 | 0.00 | 35 | 1002.9 |
| 20260506141705 | 26 | 224 | 12.9 | 37.0 | 0.00 | 0.38 | 0.00 | 34 | 1002.9 |
| 20260506141603 | 26 | 226 | 11.3 | 37.0 | 0.00 | 0.38 | 0.00 | 34 | 1003.1 |
| 20260506141504 | 26 | 227 | 11.3 | 37.0 | 0.00 | 0.38 | 0.00 | 36 | 1003.1 |
| 20260506141404 | 26 | 233 | 9.7 | 37.0 | 0.00 | 0.38 | 0.00 | 37 | 1002.8 |
| 20260506141303 | 26 | 236 | 9.7 | 37.0 | 0.00 | 0.38 | 0.00 | 34 | 1003.0 |
| 20260506141203 | 26 | 237 | 9.7 | 37.0 | 0.00 | 0.38 | 0.00 | 35 | 1003.1 |
| 20260506141103 | 26 | 234 | 8.0 | 37.0 | 0.00 | 0.38 | 0.00 | 37 | 1003.1 |
| 20260506141003 | 26 | 229 | 8.0 | 24.1 | 0.00 | 0.38 | 0.00 | 36 | 1002.9 |
| 20260506140904 | 26 | 233 | 8.0 | 24.1 | 0.00 | 0.38 | 0.00 | 36 | 1003.0 |
| 20260506140819 | 25 | 230 | 8.0 | 24.1 | 0.00 | 0.38 | 0.00 | 35 | 1003.0 |
| 20260506140804 | 25 | 227 | 8.0 | 24.1 | 0.00 | 0.38 | 0.00 | 35 | 1003.1 |
| 20260506140519 | 25 | 217 | 6.4 | 24.1 | 0.00 | 0.38 | 0.00 | 36 | 1003.0 |
| 20260506140503 | 25 | 218 | 6.4 | 25.7 | 0.00 | 0.38 | 0.00 | 36 | 1002.9 |
| 20260506140404 | 25 | 221 | 8.0 | 25.7 | 0.00 | 0.38 | 0.00 | 35 | 1002.9 |
| 20260506140205 | 25 | 213 | 8.0 | 25.7 | 0.00 | 0.38 | 0.00 | 36 | 1002.9 |
| 20260506140104 | 25 | 216 | 8.0 | 25.7 | 0.00 | 0.38 | 0.00 | 36 | 1003.0 |
| 20260506140004 | 25 | 222 | 8.0 | 25.7 | 0.00 | 0.38 | 0.00 | 34 | 1002.9 |
| 20260506135903 | 25 | 219 | 8.0 | 25.7 | 0.00 | 0.38 | 0.00 | 34 | 1003.0 |
| 20260506135803 | 25 | 216 | 8.0 | 25.7 | 0.00 | 0.38 | 0.00 | 33 | 1003.0 |
| 20260506135704 | 25 | 216 | 8.0 | 25.7 | 0.00 | 0.38 | 0.00 | 37 | 1002.9 |
| 20260506135603 | 25 | 214 | 8.0 | 25.7 | 0.00 | 0.38 | 0.00 | 34 | 1002.9 |
| 20260506135503 | 25 | 216 | 8.0 | 25.7 | 0.00 | 0.38 | 0.00 | 34 | 1002.9 |
| 20260506135404 | 26 | 209 | 8.0 | 25.7 | 0.00 | 0.38 | 0.00 | 35 | 1002.9 |
| 20260506135306 | 26 | 207 | 8.0 | 24.1 | 0.00 | 0.38 | 0.00 | 35 | 1003.0 |
| 20260506135204 | 26 | 205 | 9.7 | 24.1 | 0.00 | 0.38 | 0.00 | 34 | 1003.0 |
| 20260506135119 | 26 | 203 | 9.7 | 25.7 | 0.00 | 0.38 | 0.00 | 35 | 1003.0 |
| 20260506135103 | 26 | 201 | 9.7 | 25.7 | 0.00 | 0.38 | 0.00 | 35 | 1002.9 |
| 20260506135005 | 25 | 202 | 9.7 | 25.7 | 0.00 | 0.38 | 0.00 | 35 | 1002.9 |
| 20260506134804 | 25 | 211 | 11.3 | 25.7 | 0.00 | 0.38 | 0.00 | 35 | 1003.0 |
| 20260506134703 | 26 | 211 | 11.3 | 25.7 | 0.00 | 0.38 | 0.00 | 35 | 1003.0 |
| 20260506134603 | 26 | 214 | 11.3 | 25.7 | 0.00 | 0.38 | 0.00 | 35 | 1003.0 |
| 20260506134504 | 26 | 211 | 12.9 | 25.7 | 0.00 | 0.38 | 0.00 | 34 | 1002.9 |
| 20260506134405 | 26 | 216 | 11.3 | 25.7 | 0.00 | 0.38 | 0.00 | 34 | 1002.9 |
| 20260506134305 | 26 | 220 | 11.3 | 25.7 | 0.00 | 0.38 | 0.00 | 33 | 1002.9 |
| 20260506134204 | 26 | 225 | 11.3 | 25.7 | 0.00 | 0.38 | 0.00 | 36 | 1003.0 |
| 20260506134103 | 26 | 230 | 11.3 | 25.7 | 0.00 | 0.38 | 0.00 | 33 | 1002.7 |
| 20260506134003 | 26 | 230 | 9.7 | 25.7 | 0.00 | 0.38 | 0.00 | 34 | 1002.8 |
| 20260506133903 | 26 | 226 | 9.7 | 22.5 | 0.00 | 0.38 | 0.00 | 36 | 1002.8 |
| 20260506133821 | 26 | 226 | 9.7 | 22.5 | 0.00 | 0.38 | 0.00 | 36 | 1002.8 |
| 20260506133803 | 26 | 226 | 9.7 | 22.5 | 0.00 | 0.38 | 0.00 | 36 | 1002.9 |
| 20260506133704 | 26 | 227 | 8.0 | 22.5 | 0.00 | 0.38 | 0.00 | 34 | 1002.9 |
| 20260506133503 | 25 | 227 | 8.0 | 20.9 | 0.00 | 0.38 | 0.00 | 35 | 1003.0 |
| 20260506133404 | 25 | 222 | 8.0 | 20.9 | 0.00 | 0.38 | 0.00 | 37 | 1002.9 |
| 20260506133303 | 25 | 225 | 8.0 | 20.9 | 0.00 | 0.38 | 0.00 | 36 | 1002.8 |
| 20260506133204 | 25 | 229 | 8.0 | 24.1 | 0.00 | 0.38 | 0.00 | 36 | 1003.0 |
| 20260506133119 | 25 | 228 | 8.0 | 24.1 | 0.00 | 0.38 | 0.00 | 36 | 1003.0 |
| 20260506133104 | 25 | 228 | 8.0 | 24.1 | 0.00 | 0.38 | 0.00 | 36 | 1002.9 |
| 20260506133004 | 25 | 230 | 8.0 | 25.7 | 0.00 | 0.38 | 0.00 | 36 | 1002.9 |
| 20260506132819 | 25 | 240 | 8.0 | 30.6 | 0.00 | 0.38 | 0.00 | 37 | 1002.9 |
| 20260506132803 | 25 | 240 | 8.0 | 30.6 | 0.00 | 0.38 | 0.00 | 37 | 1003.0 |
| 20260506132717 | 25 | 245 | 9.7 | 30.6 | 0.00 | 0.38 | 0.00 | 35 | 1003.1 |
| 20260506132704 | 25 | 245 | 9.7 | 30.6 | 0.00 | 0.38 | 0.00 | 35 | 1003.1 |
| 20260506132519 | 25 | 250 | 11.3 | 30.6 | 0.00 | 0.38 | 0.00 | 35 | 1002.9 |
| 20260506132403 | 25 | 253 | 11.3 | 30.6 | 0.00 | 0.38 | 0.00 | 35 | 1003.2 |
| 20260506132203 | 25 | 250 | 11.3 | 30.6 | 0.00 | 0.38 | 0.00 | 37 | 1003.2 |
| 20260506132104 | 25 | 247 | 11.3 | 30.6 | 0.00 | 0.38 | 0.00 | 36 | 1003.1 |
| 20260506132003 | 25 | 245 | 11.3 | 30.6 | 0.00 | 0.38 | 0.00 | 39 | 1003.0 |
| 20260506131918 | 25 | 245 | 9.7 | 30.6 | 0.00 | 0.38 | 0.00 | 39 | 1002.9 |
| 20260506131904 | 25 | 246 | 9.7 | 30.6 | 0.00 | 0.38 | 0.00 | 39 | 1002.9 |
| 20260506131604 | 25 | 213 | 8.0 | 25.7 | 0.00 | 0.38 | 0.00 | 48 | 1003.2 |
| 20260506131505 | 25 | 200 | 6.4 | 25.7 | 0.00 | 0.38 | 0.00 | 49 | 1002.9 |
| 20260506131403 | 24 | 188 | 4.8 | 25.7 | 0.00 | 0.38 | 0.00 | 45 | 1002.7 |
| 20260506131317 | 23 | 182 | 4.8 | 25.7 | 0.00 | 0.38 | 0.00 | 38 | 1002.7 |
| 20260506131303 | 23 | 175 | 4.8 | 25.7 | 0.00 | 0.38 | 0.00 | 38 | 1002.9 |
| 20260506131204 | 23 | 155 | 3.2 | 25.7 | 0.00 | 0.38 | 0.00 | 43 | 1003.1 |
| 20260506131003 | 23 | 148 | 3.2 | 12.9 | 0.00 | 0.38 | 0.00 | 58 | 1003.0 |
| 20260506130916 | 23 | 139 | 1.6 | 9.7 | 0.00 | 0.38 | 0.00 | 58 | 1003.0 |
| 20260506130903 | 23 | 138 | 1.6 | 9.7 | 0.00 | 0.38 | 0.00 | 60 | 1003.1 |
| 20260506130804 | 23 | 162 | 1.6 | 9.7 | 0.00 | 0.38 | 0.00 | 60 | 1003.0 |
| 20260506130604 | 22 | 164 | 1.6 | 14.5 | 0.00 | 0.38 | 0.00 | 58 | 1003.2 |
| 20260506130503 | 22 | 166 | 3.2 | 16.1 | 0.00 | 0.38 | 0.00 | 58 | 1003.3 |
| 20260506130403 | 22 | 98 | 3.2 | 16.1 | 0.00 | 0.38 | 0.00 | 59 | 1003.3 |
| 20260506130304 | 22 | 60 | 4.8 | 16.1 | 0.00 | 0.38 | 0.00 | 60 | 1003.2 |
| 20260506130204 | 22 | 40 | 4.8 | 16.1 | 0.00 | 0.38 | 0.00 | 63 | 1003.4 |
| 20260506130104 | 22 | 29 | 4.8 | 16.1 | 0.00 | 0.38 | 0.00 | 63 | 1003.2 |
| 20260506130003 | 22 | 24 | 6.4 | 16.1 | 0.00 | 0.38 | 0.00 | 63 | 1003.3 |
| 20260506125903 | 22 | 20 | 6.4 | 16.1 | 0.00 | 0.38 | 0.00 | 63 | 1003.3 |
| 20260506125805 | 22 | 20 | 6.4 | 16.1 | 0.00 | 0.38 | 0.00 | 62 | 1003.3 |
| 20260506125704 | 22 | 16 | 6.4 | 16.1 | 0.00 | 0.38 | 0.00 | 63 | 1003.3 |
| 20260506125504 | 22 | 10 | 6.4 | 22.5 | 0.00 | 0.38 | 0.00 | 63 | 1003.2 |
| 20260506125403 | 22 | 19 | 6.4 | 22.5 | 0.00 | 0.38 | 0.00 | 62 | 1003.2 |
| 20260506125306 | 22 | 28 | 6.4 | 22.5 | 0.00 | 0.38 | 0.00 | 63 | 1003.2 |
| 20260506125204 | 22 | 39 | 6.4 | 22.5 | 0.00 | 0.38 | 0.00 | 63 | 1003.4 |
| 20260506125103 | 22 | 43 | 6.4 | 22.5 | 0.00 | 0.38 | 0.00 | 62 | 1003.4 |
| 20260506125004 | 22 | 36 | 6.4 | 22.5 | 0.00 | 0.38 | 0.00 | 62 | 1003.6 |
| 20260506124903 | 22 | 27 | 6.4 | 22.5 | 0.00 | 0.38 | 0.00 | 61 | 1003.7 |
| 20260506124804 | 22 | 34 | 6.4 | 22.5 | 0.00 | 0.38 | 0.00 | 62 | 1003.3 |
| 20260506124704 | 22 | 51 | 6.4 | 22.5 | 0.00 | 0.38 | 0.00 | 61 | 1003.4 |
| 20260506124615 | 22 | 63 | 6.4 | 22.5 | 0.00 | 0.38 | 0.00 | 62 | 1003.4 |
| 20260506124603 | 22 | 64 | 6.4 | 22.5 | 0.00 | 0.38 | 0.00 | 62 | 1003.2 |
| 20260506124518 | 22 | 66 | 6.4 | 22.5 | 0.00 | 0.38 | 0.00 | 61 | 1003.6 |
| 20260506124503 | 22 | 64 | 6.4 | 22.5 | 0.00 | 0.38 | 0.00 | 61 | 1003.6 |
| 20260506124203 | 22 | 61 | 6.4 | 17.7 | 0.00 | 0.38 | 0.00 | 62 | 1003.4 |
| 20260506124103 | 22 | 63 | 6.4 | 17.7 | 0.00 | 0.38 | 0.00 | 60 | 1003.2 |
| 20260506124003 | 22 | 71 | 6.4 | 17.7 | 0.00 | 0.38 | 0.00 | 60 | 1003.3 |
| 20260506123903 | 22 | 74 | 6.4 | 17.7 | 0.00 | 0.38 | 0.00 | 59 | 1003.4 |
| 20260506123803 | 22 | 77 | 6.4 | 16.1 | 0.00 | 0.38 | 0.00 | 60 | 1003.3 |
| 20260506123704 | 22 | 74 | 6.4 | 16.1 | 0.00 | 0.38 | 0.00 | 58 | 1003.4 |
| 20260506123603 | 22 | 71 | 6.4 | 16.1 | 0.00 | 0.38 | 0.00 | 59 | 1003.4 |
| 20260506123503 | 22 | 66 | 6.4 | 16.1 | 0.00 | 0.38 | 0.00 | 58 | 1003.4 |
| 20260506123404 | 22 | 58 | 6.4 | 16.1 | 0.00 | 0.38 | 0.00 | 58 | 1003.3 |
| 20260506123305 | 23 | 50 | 6.4 | 12.9 | 0.00 | 0.38 | 0.00 | 59 | 1003.2 |
| 20260506123204 | 23 | 44 | 4.8 | 12.9 | 0.00 | 0.38 | 0.00 | 59 | 1003.3 |
| 20260506123103 | 23 | 46 | 4.8 | 12.9 | 0.00 | 0.38 | 0.00 | 57 | 1003.3 |
| 20260506123003 | 23 | 39 | 4.8 | 12.9 | 0.00 | 0.38 | 0.00 | 58 | 1003.3 |
| 20260506122904 | 23 | 39 | 4.8 | 12.9 | 0.00 | 0.38 | 0.00 | 59 | 1003.3 |
| 20260506122803 | 23 | 36 | 4.8 | 17.7 | 0.00 | 0.38 | 0.00 | 58 | 1003.2 |
| 20260506122703 | 23 | 40 | 4.8 | 17.7 | 0.00 | 0.38 | 0.00 | 58 | 1003.4 |
| 20260506122605 | 23 | 39 | 4.8 | 17.7 | 0.00 | 0.38 | 0.00 | 56 | 1003.2 |
| 20260506122503 | 23 | 42 | 4.8 | 17.7 | 0.00 | 0.38 | 0.00 | 58 | 1003.5 |
| 20260506122417 | 23 | 45 | 4.8 | 17.7 | 0.00 | 0.38 | 0.00 | 58 | 1003.4 |
| 20260506122403 | 23 | 45 | 4.8 | 17.7 | 0.00 | 0.38 | 0.00 | 58 | 1003.4 |
| 20260506122305 | 23 | 45 | 4.8 | 17.7 | 0.00 | 0.38 | 0.00 | 57 | 1003.3 |
| 20260506122104 | 23 | 49 | 6.4 | 17.7 | 0.00 | 0.38 | 0.00 | 57 | 1003.4 |
| 20260506122019 | 23 | 50 | 6.4 | 17.7 | 0.00 | 0.38 | 0.00 | 57 | 1003.3 |
| 20260506122004 | 23 | 51 | 6.4 | 17.7 | 0.00 | 0.38 | 0.00 | 55 | 1003.3 |
| 20260506121904 | 23 | 57 | 6.4 | 17.7 | 0.00 | 0.38 | 0.00 | 57 | 1003.4 |
| 20260506121816 | 23 | 57 | 6.4 | 17.7 | 0.00 | 0.38 | 0.00 | 57 | 1003.4 |
| 20260506121704 | 23 | 61 | 6.4 | 17.7 | 0.00 | 0.38 | 0.00 | 54 | 1003.1 |
| 20260506121504 | 23 | 58 | 6.4 | 14.5 | 0.00 | 0.38 | 0.00 | 53 | 1003.3 |
| 20260506121404 | 23 | 53 | 4.8 | 14.5 | 0.00 | 0.38 | 0.00 | 53 | 1003.2 |
| 20260506121304 | 23 | 51 | 4.8 | 14.5 | 0.00 | 0.38 | 0.00 | 55 | 1003.3 |
| 20260506121204 | 23 | 44 | 4.8 | 14.5 | 0.00 | 0.38 | 0.00 | 54 | 1003.1 |
| 20260506121103 | 23 | 34 | 4.8 | 14.5 | 0.00 | 0.38 | 0.00 | 53 | 1003.3 |
| 20260506121003 | 23 | 33 | 4.8 | 14.5 | 0.00 | 0.38 | 0.00 | 54 | 1003.2 |
| 20260506120903 | 23 | 30 | 4.8 | 14.5 | 0.00 | 0.38 | 0.00 | 54 | 1003.1 |
| 20260506120804 | 23 | 26 | 4.8 | 12.9 | 0.00 | 0.38 | 0.00 | 54 | 1003.3 |
| 20260506120717 | 23 | 27 | 4.8 | 14.5 | 0.00 | 0.38 | 0.00 | 54 | 1003.3 |
| 20260506120704 | 23 | 28 | 4.8 | 14.5 | 0.00 | 0.38 | 0.00 | 54 | 1003.3 |
| 20260506120603 | 23 | 32 | 6.4 | 14.5 | 0.00 | 0.38 | 0.00 | 55 | 1003.3 |
| 20260506120518 | 23 | 40 | 6.4 | 14.5 | 0.00 | 0.38 | 0.00 | 55 | 1003.3 |
| 20260506120404 | 23 | 48 | 6.4 | 14.5 | 0.00 | 0.38 | 0.00 | 56 | 1003.3 |
| 20260506120218 | 23 | 51 | 6.4 | 16.1 | 0.00 | 0.38 | 0.00 | 55 | 1003.4 |
| 20260506120203 | 23 | 51 | 6.4 | 16.1 | 0.00 | 0.38 | 0.00 | 56 | 1003.3 |
| 20260506120103 | 23 | 58 | 6.4 | 16.1 | 0.00 | 0.38 | 0.00 | 56 | 1003.3 |
| 20260506115904 | 23 | 67 | 8.0 | 16.1 | 0.00 | 0.38 | 0.00 | 56 | 1003.5 |
| 20260506115820 | 23 | 64 | 8.0 | 16.1 | 0.00 | 0.38 | 0.00 | 55 | 1003.5 |
| 20260506115803 | 23 | 66 | 8.0 | 16.1 | 0.00 | 0.38 | 0.00 | 55 | 1003.5 |
| 20260506115704 | 23 | 63 | 8.0 | 16.1 | 0.00 | 0.38 | 0.00 | 56 | 1003.3 |
| 20260506115520 | 23 | 46 | 6.4 | 16.1 | 0.00 | 0.38 | 0.00 | 56 | 1003.7 |
| 20260506115503 | 23 | 44 | 6.4 | 16.1 | 0.00 | 0.38 | 0.00 | 56 | 1003.7 |
| 20260506115404 | 23 | 36 | 6.4 | 16.1 | 0.00 | 0.38 | 0.00 | 56 | 1003.5 |
| 20260506115204 | 23 | 35 | 6.4 | 16.1 | 0.00 | 0.38 | 0.00 | 55 | 1003.6 |
| 20260506115103 | 23 | 31 | 6.4 | 16.1 | 0.00 | 0.38 | 0.00 | 55 | 1003.3 |
| 20260506115004 | 23 | 29 | 4.8 | 14.5 | 0.00 | 0.38 | 0.00 | 53 | 1003.6 |
| 20260506114904 | 23 | 24 | 4.8 | 14.5 | 0.00 | 0.38 | 0.00 | 54 | 1003.4 |
| 20260506114804 | 23 | 24 | 4.8 | 12.9 | 0.00 | 0.38 | 0.00 | 51 | 1003.5 |
| 20260506114704 | 23 | 28 | 4.8 | 12.9 | 0.00 | 0.38 | 0.00 | 51 | 1003.5 |
| 20260506114619 | 23 | 35 | 4.8 | 12.9 | 0.00 | 0.38 | 0.00 | 51 | 1003.6 |
| 20260506114604 | 23 | 37 | 4.8 | 12.9 | 0.00 | 0.38 | 0.00 | 51 | 1003.6 |
| 20260506114504 | 23 | 47 | 3.2 | 11.3 | 0.00 | 0.38 | 0.00 | 55 | 1003.5 |
| 20260506114303 | 23 | 49 | 3.2 | 11.3 | 0.00 | 0.38 | 0.00 | 58 | 1003.5 |
| 20260506114218 | 23 | 48 | 3.2 | 11.3 | 0.00 | 0.38 | 0.00 | 56 | 1003.8 |
| 20260506114203 | 23 | 49 | 3.2 | 11.3 | 0.00 | 0.38 | 0.00 | 56 | 1003.8 |
| 20260506114120 | 23 | 51 | 3.2 | 11.3 | 0.00 | 0.38 | 0.00 | 54 | 1003.8 |
| 20260506114103 | 23 | 52 | 3.2 | 11.3 | 0.00 | 0.38 | 0.00 | 54 | 1003.8 |
| 20260506114019 | 23 | 51 | 3.2 | 11.3 | 0.00 | 0.38 | 0.00 | 54 | 1003.6 |
| 20260506113704 | 23 | 75 | 3.2 | 11.3 | 0.00 | 0.38 | 0.00 | 56 | 1003.7 |
| 20260506113603 | 23 | 91 | 3.2 | 11.3 | 0.00 | 0.38 | 0.00 | 50 | 1003.8 |
| 20260506113503 | 23 | 129 | 3.2 | 11.3 | 0.00 | 0.38 | 0.00 | 51 | 1003.9 |
| 20260506113404 | 23 | 152 | 3.2 | 12.9 | 0.00 | 0.38 | 0.00 | 52 | 1003.8 |
| 20260506113304 | 23 | 171 | 3.2 | 16.1 | 0.00 | 0.38 | 0.00 | 47 | 1003.9 |
| 20260506113204 | 23 | 169 | 4.8 | 16.1 | 0.00 | 0.38 | 0.00 | 46 | 1004.0 |
| 20260506113103 | 23 | 170 | 4.8 | 16.1 | 0.00 | 0.38 | 0.00 | 43 | 1003.9 |
| 20260506113004 | 23 | 166 | 4.8 | 16.1 | 0.00 | 0.38 | 0.00 | 43 | 1004.0 |
| 20260506112919 | 23 | 160 | 4.8 | 16.1 | 0.00 | 0.38 | 0.00 | 42 | 1004.0 |
| 20260506112904 | 23 | 155 | 4.8 | 16.1 | 0.00 | 0.38 | 0.00 | 42 | 1004.1 |
| 20260506112804 | 23 | 141 | 4.8 | 16.1 | 0.00 | 0.38 | 0.00 | 47 | 1004.0 |
| 20260506112603 | 23 | 112 | 6.4 | 16.1 | 0.00 | 0.38 | 0.00 | 45 | 1004.1 |
| 20260506112503 | 23 | 97 | 6.4 | 16.1 | 0.00 | 0.38 | 0.00 | 47 | 1004.2 |
| 20260506112403 | 23 | 90 | 8.0 | 16.1 | 0.00 | 0.38 | 0.00 | 50 | 1004.0 |
| 20260506112306 | 23 | 85 | 8.0 | 16.1 | 0.00 | 0.38 | 0.00 | 44 | 1004.0 |
| 20260506112204 | 23 | 83 | 6.4 | 16.1 | 0.00 | 0.38 | 0.00 | 55 | 1004.1 |
| 20260506112103 | 23 | 84 | 6.4 | 16.1 | 0.00 | 0.38 | 0.00 | 54 | 1004.1 |
| 20260506112003 | 23 | 85 | 6.4 | 16.1 | 0.00 | 0.38 | 0.00 | 54 | 1004.2 |
| 20260506111903 | 23 | 87 | 6.4 | 16.1 | 0.00 | 0.38 | 0.00 | 52 | 1004.0 |
| 20260506111804 | 23 | 88 | 6.4 | 16.1 | 0.00 | 0.38 | 0.00 | 56 | 1004.1 |
| 20260506111703 | 23 | 90 | 4.8 | 14.5 | 0.00 | 0.38 | 0.00 | 54 | 1004.3 |
| 20260506111604 | 23 | 95 | 4.8 | 14.5 | 0.00 | 0.38 | 0.00 | 52 | 1004.1 |
| 20260506111504 | 23 | 105 | 3.2 | 14.5 | 0.00 | 0.38 | 0.00 | 52 | 1004.2 |
| 20260506111403 | 23 | 110 | 3.2 | 12.9 | 0.00 | 0.38 | 0.00 | 49 | 1004.1 |
| 20260506111305 | 23 | 105 | 3.2 | 12.9 | 0.00 | 0.38 | 0.00 | 48 | 1004.2 |
| 20260506111203 | 23 | 100 | 3.2 | 11.3 | 0.00 | 0.38 | 0.00 | 49 | 1004.1 |
| 20260506111103 | 23 | 96 | 3.2 | 11.3 | 0.00 | 0.38 | 0.00 | 51 | 1004.2 |
| 20260506111005 | 23 | 85 | 3.2 | 9.7 | 0.00 | 0.38 | 0.00 | 51 | 1004.2 |
| 20260506110904 | 23 | 83 | 3.2 | 9.7 | 0.00 | 0.38 | 0.00 | 52 | 1004.2 |
| 20260506110804 | 23 | 85 | 3.2 | 9.7 | 0.00 | 0.38 | 0.00 | 48 | 1004.4 |
| 20260506110705 | 23 | 92 | 3.2 | 9.7 | 0.00 | 0.38 | 0.00 | 49 | 1004.1 |
| 20260506110604 | 23 | 101 | 3.2 | 9.7 | 0.00 | 0.38 | 0.00 | 49 | 1004.2 |
| 20260506110518 | 23 | 105 | 3.2 | 9.7 | 0.00 | 0.38 | 0.00 | 51 | 1004.2 |
| 20260506110503 | 23 | 108 | 3.2 | 9.7 | 0.00 | 0.38 | 0.00 | 51 | 1004.4 |
| 20260506110403 | 23 | 119 | 3.2 | 9.7 | 0.00 | 0.38 | 0.00 | 50 | 1004.3 |
| 20260506110203 | 23 | 147 | 3.2 | 9.7 | 0.00 | 0.38 | 0.00 | 52 | 1004.3 |
| 20260506110103 | 23 | 157 | 3.2 | 9.7 | 0.00 | 0.38 | 0.00 | 54 | 1004.3 |
| 20260506110004 | 23 | 171 | 3.2 | 9.7 | 0.00 | 0.38 | 0.00 | 52 | 1004.3 |
| 20260506105904 | 22 | 182 | 3.2 | 11.3 | 0.00 | 0.38 | 0.00 | 52 | 1004.3 |
| 20260506105803 | 22 | 178 | 3.2 | 11.3 | 0.00 | 0.38 | 0.00 | 52 | 1004.5 |
| 20260506105703 | 22 | 164 | 3.2 | 12.9 | 0.00 | 0.38 | 0.00 | 51 | 1004.2 |
| 20260506105604 | 22 | 152 | 4.8 | 12.9 | 0.00 | 0.38 | 0.00 | 51 | 1004.4 |
| 20260506105520 | 22 | 144 | 4.8 | 12.9 | 0.00 | 0.38 | 0.00 | 48 | 1004.4 |
| 20260506105504 | 22 | 141 | 4.8 | 12.9 | 0.00 | 0.38 | 0.00 | 48 | 1004.4 |
| 20260506105403 | 22 | 131 | 4.8 | 12.9 | 0.00 | 0.38 | 0.00 | 52 | 1004.4 |
| 20260506105317 | 22 | 125 | 4.8 | 12.9 | 0.00 | 0.38 | 0.00 | 54 | 1004.4 |
| 20260506105219 | 22 | 115 | 4.8 | 12.9 | 0.00 | 0.38 | 0.00 | 49 | 1004.4 |
| 20260506105203 | 22 | 113 | 4.8 | 12.9 | 0.00 | 0.38 | 0.00 | 49 | 1004.4 |
| 20260506104904 | 22 | 107 | 6.4 | 16.1 | 0.00 | 0.38 | 0.00 | 52 | 1004.6 |
| 20260506104804 | 22 | 103 | 6.4 | 16.1 | 0.00 | 0.38 | 0.00 | 50 | 1004.4 |
| 20260506104716 | 22 | 107 | 6.4 | 16.1 | 0.00 | 0.38 | 0.00 | 52 | 1004.5 |
| 20260506104703 | 22 | 107 | 6.4 | 16.1 | 0.00 | 0.38 | 0.00 | 52 | 1004.5 |
| 20260506104619 | 22 | 106 | 6.4 | 16.1 | 0.00 | 0.38 | 0.00 | 52 | 1004.5 |
| 20260506104604 | 22 | 106 | 6.4 | 16.1 | 0.00 | 0.38 | 0.00 | 52 | 1004.5 |
| 20260506104517 | 22 | 106 | 6.4 | 16.1 | 0.00 | 0.38 | 0.00 | 52 | 1004.5 |
| 20260506104203 | 22 | 112 | 6.4 | 16.1 | 0.00 | 0.38 | 0.00 | 53 | 1004.6 |
| 20260506104104 | 22 | 107 | 6.4 | 16.1 | 0.00 | 0.38 | 0.00 | 53 | 1004.6 |
| 20260506104004 | 22 | 103 | 6.4 | 16.1 | 0.00 | 0.38 | 0.00 | 52 | 1004.6 |
| 20260506103904 | 22 | 103 | 6.4 | 16.1 | 0.00 | 0.38 | 0.00 | 51 | 1004.6 |
| 20260506103804 | 22 | 105 | 6.4 | 16.1 | 0.00 | 0.38 | 0.00 | 51 | 1004.5 |
| 20260506103703 | 22 | 104 | 4.8 | 14.5 | 0.00 | 0.38 | 0.00 | 57 | 1004.6 |
| 20260506103603 | 22 | 108 | 4.8 | 12.9 | 0.00 | 0.38 | 0.00 | 57 | 1004.7 |
| 20260506103504 | 22 | 110 | 4.8 | 16.1 | 0.00 | 0.38 | 0.00 | 55 | 1004.7 |
| 20260506103404 | 22 | 117 | 6.4 | 16.1 | 0.00 | 0.38 | 0.00 | 54 | 1004.7 |
| 20260506103321 | 22 | 115 | 6.4 | 16.1 | 0.00 | 0.38 | 0.00 | 54 | 1004.7 |
| 20260506103303 | 22 | 114 | 6.4 | 16.1 | 0.00 | 0.38 | 0.00 | 54 | 1004.7 |
| 20260506103204 | 22 | 117 | 6.4 | 16.1 | 0.00 | 0.38 | 0.00 | 56 | 1004.8 |
| 20260506103004 | 22 | 128 | 4.8 | 16.1 | 0.00 | 0.38 | 0.00 | 56 | 1004.9 |
| 20260506102919 | 22 | 125 | 6.4 | 16.1 | 0.00 | 0.38 | 0.00 | 56 | 1004.9 |
| 20260506102903 | 22 | 123 | 6.4 | 16.1 | 0.00 | 0.38 | 0.00 | 57 | 1004.8 |
| 20260506102804 | 22 | 117 | 6.4 | 16.1 | 0.00 | 0.38 | 0.00 | 55 | 1004.7 |
| 20260506102605 | 22 | 107 | 6.4 | 16.1 | 0.00 | 0.38 | 0.00 | 57 | 1004.6 |
| 20260506102503 | 22 | 104 | 6.4 | 16.1 | 0.00 | 0.38 | 0.00 | 56 | 1004.7 |
| 20260506102421 | 22 | 102 | 4.8 | 16.1 | 0.00 | 0.38 | 0.00 | 57 | 1004.7 |
| 20260506102403 | 22 | 99 | 4.8 | 16.1 | 0.00 | 0.38 | 0.00 | 57 | 1004.8 |
| 20260506102305 | 22 | 100 | 4.8 | 14.5 | 0.00 | 0.38 | 0.00 | 58 | 1004.7 |
| 20260506102217 | 22 | 99 | 4.8 | 14.5 | 0.00 | 0.38 | 0.00 | 58 | 1004.6 |
| 20260506102103 | 22 | 79 | 3.2 | 14.5 | 0.00 | 0.38 | 0.00 | 60 | 1004.7 |
| 20260506101903 | 22 | 67 | 3.2 | 11.3 | 0.00 | 0.38 | 0.00 | 59 | 1004.7 |
| 20260506101804 | 22 | 84 | 3.2 | 11.3 | 0.00 | 0.38 | 0.00 | 60 | 1004.8 |
| 20260506101703 | 21 | 113 | 1.6 | 9.7 | 0.00 | 0.38 | 0.00 | 61 | 1004.9 |
| 20260506101604 | 21 | 141 | 1.6 | 6.4 | 0.00 | 0.38 | 0.00 | 60 | 1004.9 |
| 20260506101505 | 21 | 153 | 1.6 | 9.7 | 0.00 | 0.38 | 0.00 | 62 | 1004.9 |
| 20260506101403 | 21 | 145 | 1.6 | 9.7 | 0.00 | 0.38 | 0.00 | 60 | 1004.9 |
| 20260506101303 | 21 | 136 | 3.2 | 11.3 | 0.00 | 0.38 | 0.00 | 61 | 1005.0 |
| 20260506101219 | 21 | 125 | 3.2 | 11.3 | 0.00 | 0.38 | 0.00 | 61 | 1004.8 |
| 20260506101203 | 21 | 126 | 3.2 | 11.3 | 0.00 | 0.38 | 0.00 | 58 | 1004.8 |
| 20260506101103 | 21 | 128 | 3.2 | 11.3 | 0.00 | 0.38 | 0.00 | 59 | 1004.8 |
| 20260506101016 | 21 | 128 | 3.2 | 11.3 | 0.00 | 0.38 | 0.00 | 59 | 1004.9 |
| 20260506100903 | 21 | 125 | 4.8 | 11.3 | 0.00 | 0.38 | 0.00 | 59 | 1005.0 |
| 20260506100818 | 21 | 120 | 4.8 | 12.9 | 0.00 | 0.38 | 0.00 | 61 | 1005.0 |
| 20260506100720 | 21 | 113 | 4.8 | 12.9 | 0.00 | 0.38 | 0.00 | 60 | 1005.0 |
| 20260506100703 | 21 | 111 | 4.8 | 14.5 | 0.00 | 0.38 | 0.00 | 60 | 1004.9 |
| 20260506100416 | 21 | 109 | 6.4 | 14.5 | 0.00 | 0.38 | 0.00 | 61 | 1005.1 |
| 20260506100404 | 21 | 109 | 6.4 | 14.5 | 0.00 | 0.38 | 0.00 | 61 | 1005.0 |
| 20260506100305 | 21 | 110 | 6.4 | 14.5 | 0.00 | 0.38 | 0.00 | 61 | 1004.9 |
| 20260506100120 | 21 | 113 | 6.4 | 14.5 | 0.00 | 0.38 | 0.00 | 60 | 1004.9 |
| 20260506100005 | 21 | 113 | 6.4 | 14.5 | 0.00 | 0.38 | 0.00 | 64 | 1005.0 |
| 20260506095819 | 21 | 117 | 4.8 | 14.5 | 0.00 | 0.38 | 0.00 | 61 | 1005.1 |
| 20260506095803 | 21 | 120 | 4.8 | 14.5 | 0.00 | 0.38 | 0.00 | 60 | 1005.0 |
| 20260506095705 | 21 | 128 | 4.8 | 14.5 | 0.00 | 0.38 | 0.00 | 60 | 1005.0 |
| 20260506095505 | 21 | 130 | 3.2 | 12.9 | 0.00 | 0.38 | 0.00 | 62 | 1005.1 |
| 20260506095404 | 21 | 130 | 3.2 | 12.9 | 0.00 | 0.38 | 0.00 | 61 | 1005.0 |
| 20260506095305 | 21 | 129 | 3.2 | 11.3 | 0.00 | 0.38 | 0.00 | 61 | 1005.0 |
| 20260506095204 | 21 | 131 | 3.2 | 11.3 | 0.00 | 0.38 | 0.00 | 59 | 1005.0 |
| 20260506095103 | 21 | 133 | 3.2 | 11.3 | 0.00 | 0.38 | 0.00 | 62 | 1005.3 |
| 20260506095004 | 21 | 131 | 3.2 | 11.3 | 0.00 | 0.38 | 0.00 | 63 | 1004.9 |
| 20260506094919 | 21 | 127 | 3.2 | 11.3 | 0.00 | 0.38 | 0.00 | 63 | 1004.9 |
| 20260506094904 | 21 | 125 | 3.2 | 11.3 | 0.00 | 0.38 | 0.00 | 63 | 1005.1 |
| 20260506094804 | 21 | 123 | 3.2 | 11.3 | 0.00 | 0.38 | 0.00 | 60 | 1005.3 |
| 20260506094603 | 21 | 120 | 3.2 | 12.9 | 0.00 | 0.38 | 0.00 | 61 | 1005.1 |
| 20260506094503 | 20 | 120 | 3.2 | 12.9 | 0.00 | 0.38 | 0.00 | 62 | 1005.1 |
| 20260506094404 | 20 | 119 | 4.8 | 12.9 | 0.00 | 0.38 | 0.00 | 64 | 1005.1 |
| 20260506094303 | 20 | 118 | 4.8 | 12.9 | 0.00 | 0.38 | 0.00 | 61 | 1005.2 |
| 20260506094205 | 20 | 111 | 4.8 | 12.9 | 0.00 | 0.38 | 0.00 | 61 | 1005.2 |
| 20260506094103 | 20 | 103 | 4.8 | 12.9 | 0.00 | 0.38 | 0.00 | 61 | 1005.3 |
| 20260506094003 | 20 | 108 | 4.8 | 12.9 | 0.00 | 0.38 | 0.00 | 59 | 1005.2 |
| 20260506093903 | 20 | 108 | 4.8 | 12.9 | 0.00 | 0.38 | 0.00 | 60 | 1005.2 |
| 20260506093804 | 21 | 103 | 4.8 | 12.9 | 0.00 | 0.38 | 0.00 | 60 | 1005.3 |
| 20260506093704 | 21 | 100 | 4.8 | 14.5 | 0.00 | 0.38 | 0.00 | 60 | 1005.2 |
| 20260506093603 | 21 | 86 | 6.4 | 16.1 | 0.00 | 0.38 | 0.00 | 61 | 1005.2 |
| 20260506093504 | 20 | 79 | 6.4 | 16.1 | 0.00 | 0.38 | 0.00 | 65 | 1005.2 |
| 20260506093403 | 20 | 77 | 6.4 | 16.1 | 0.00 | 0.38 | 0.00 | 64 | 1005.1 |
| 20260506093318 | 20 | 74 | 6.4 | 16.1 | 0.00 | 0.38 | 0.00 | 61 | 1005.1 |
| 20260506093304 | 20 | 75 | 6.4 | 16.1 | 0.00 | 0.38 | 0.00 | 61 | 1005.3 |
| 20260506093204 | 20 | 85 | 6.4 | 16.1 | 0.00 | 0.38 | 0.00 | 61 | 1005.2 |
| 20260506093003 | 20 | 94 | 6.4 | 16.1 | 0.00 | 0.38 | 0.00 | 64 | 1005.1 |
| 20260506092918 | 20 | 96 | 6.4 | 16.1 | 0.00 | 0.38 | 0.00 | 63 | 1005.1 |
| 20260506092904 | 20 | 97 | 6.4 | 16.1 | 0.00 | 0.38 | 0.00 | 63 | 1005.1 |
| 20260506092817 | 20 | 99 | 6.4 | 16.1 | 0.00 | 0.38 | 0.00 | 61 | 1005.2 |
| 20260506092803 | 20 | 100 | 6.4 | 16.1 | 0.00 | 0.38 | 0.00 | 61 | 1005.2 |
| 20260506092504 | 20 | 119 | 4.8 | 14.5 | 0.00 | 0.38 | 0.00 | 63 | 1005.2 |
| 20260506092403 | 20 | 115 | 4.8 | 14.5 | 0.00 | 0.38 | 0.00 | 64 | 1005.3 |
| 20260506092312 | 20 | 114 | 4.8 | 14.5 | 0.00 | 0.38 | 0.00 | 64 | 1005.4 |
| 20260506092204 | 20 | 117 | 4.8 | 14.5 | 0.00 | 0.38 | 0.00 | 64 | 1005.1 |
| 20260506092119 | 20 | 118 | 4.8 | 14.5 | 0.00 | 0.38 | 0.00 | 64 | 1005.1 |
| 20260506092104 | 20 | 118 | 4.8 | 14.5 | 0.00 | 0.38 | 0.00 | 64 | 1005.2 |
| 20260506092003 | 20 | 108 | 4.8 | 14.5 | 0.00 | 0.38 | 0.00 | 64 | 1005.1 |
| 20260506091803 | 20 | 105 | 4.8 | 12.9 | 0.00 | 0.38 | 0.00 | 67 | 1005.3 |
| 20260506091705 | 20 | 102 | 3.2 | 12.9 | 0.00 | 0.38 | 0.00 | 66 | 1005.2 |
| 20260506091605 | 20 | 95 | 4.8 | 12.9 | 0.00 | 0.38 | 0.00 | 64 | 1005.4 |
| 20260506091504 | 20 | 100 | 4.8 | 12.9 | 0.00 | 0.38 | 0.00 | 66 | 1005.2 |
| 20260506091304 | 20 | 114 | 4.8 | 16.1 | 0.00 | 0.38 | 0.00 | 68 | 1005.4 |
| 20260506091212 | 19 | 110 | 6.4 | 16.1 | 0.00 | 0.38 | 0.00 | 67 | 1005.4 |
| 20260506091203 | 19 | 108 | 6.4 | 16.1 | 0.00 | 0.38 | 0.00 | 67 | 1005.4 |
| 20260506091003 | 19 | 104 | 4.8 | 16.1 | 0.00 | 0.38 | 0.00 | 67 | 1005.3 |
| 20260506090904 | 19 | 102 | 4.8 | 16.1 | 0.00 | 0.38 | 0.00 | 66 | 1005.1 |
| 20260506090804 | 19 | 104 | 4.8 | 16.1 | 0.00 | 0.38 | 0.00 | 64 | 1005.4 |
| 20260506090703 | 19 | 104 | 6.4 | 16.1 | 0.00 | 0.38 | 0.00 | 67 | 1005.5 |
| 20260506090604 | 19 | 106 | 6.4 | 16.1 | 0.00 | 0.38 | 0.00 | 67 | 1005.5 |
| 20260506090504 | 19 | 104 | 6.4 | 16.1 | 0.00 | 0.38 | 0.00 | 67 | 1005.3 |
| 20260506090419 | 19 | 100 | 6.4 | 16.1 | 0.00 | 0.38 | 0.00 | 67 | 1005.3 |
| 20260506090404 | 19 | 99 | 6.4 | 16.1 | 0.00 | 0.38 | 0.00 | 67 | 1005.4 |
| 20260506090303 | 19 | 97 | 6.4 | 16.1 | 0.00 | 0.38 | 0.00 | 66 | 1005.2 |
| 20260506090105 | 19 | 97 | 4.8 | 14.5 | 0.00 | 0.38 | 0.00 | 63 | 1005.5 |
| 20260506090004 | 19 | 97 | 6.4 | 14.5 | 0.00 | 0.38 | 0.00 | 67 | 1005.8 |
| 20260506085921 | 19 | 100 | 6.4 | 16.1 | 0.00 | 0.38 | 0.00 | 66 | 1005.5 |
| 20260506085903 | 19 | 101 | 6.4 | 16.1 | 0.00 | 0.38 | 0.00 | 66 | 1005.5 |
| 20260506085819 | 19 | 102 | 6.4 | 16.1 | 0.00 | 0.38 | 0.00 | 66 | 1005.5 |
| 20260506085803 | 19 | 101 | 6.4 | 16.1 | 0.00 | 0.38 | 0.00 | 66 | 1005.5 |
| 20260506085503 | 19 | 96 | 8.0 | 16.1 | 0.00 | 0.38 | 0.00 | 68 | 1005.5 |
| 20260506085417 | 18 | 92 | 6.4 | 16.1 | 0.00 | 0.38 | 0.00 | 68 | 1005.6 |
| 20260506085403 | 18 | 91 | 6.4 | 16.1 | 0.00 | 0.38 | 0.00 | 68 | 1005.6 |
| 20260506085306 | 18 | 90 | 6.4 | 16.1 | 0.00 | 0.38 | 0.00 | 68 | 1005.5 |
| 20260506085104 | 18 | 95 | 6.4 | 16.1 | 0.00 | 0.38 | 0.00 | 65 | 1005.6 |
| 20260506085004 | 18 | 100 | 6.4 | 16.1 | 0.00 | 0.38 | 0.00 | 69 | 1005.4 |
| 20260506084904 | 18 | 99 | 6.4 | 16.1 | 0.00 | 0.38 | 0.00 | 69 | 1005.4 |
| 20260506084804 | 18 | 101 | 6.4 | 16.1 | 0.00 | 0.38 | 0.00 | 70 | 1005.4 |
| 20260506084705 | 18 | 106 | 4.8 | 16.1 | 0.00 | 0.38 | 0.00 | 69 | 1005.3 |
| 20260506084618 | 18 | 114 | 4.8 | 12.9 | 0.00 | 0.38 | 0.00 | 67 | 1005.5 |
| 20260506084605 | 18 | 117 | 4.8 | 12.9 | 0.00 | 0.38 | 0.00 | 67 | 1005.5 |
| 20260506084505 | 18 | 129 | 4.8 | 12.9 | 0.00 | 0.38 | 0.00 | 67 | 1005.5 |
| 20260506084318 | 18 | 133 | 4.8 | 12.9 | 0.00 | 0.38 | 0.00 | 71 | 1005.4 |
| 20260506084304 | 18 | 133 | 4.8 | 12.9 | 0.00 | 0.38 | 0.00 | 71 | 1005.4 |
| 20260506084205 | 18 | 131 | 4.8 | 12.9 | 0.00 | 0.38 | 0.00 | 71 | 1005.4 |
| 20260506084003 | 18 | 114 | 4.8 | 12.9 | 0.00 | 0.38 | 0.00 | 70 | 1005.6 |
| 20260506083908 | 18 | 111 | 6.4 | 12.9 | 0.00 | 0.38 | 0.00 | 71 | 1005.6 |
| 20260506083804 | 18 | 110 | 6.4 | 12.9 | 0.00 | 0.38 | 0.00 | 70 | 1005.5 |
| 20260506083703 | 18 | 109 | 6.4 | 12.9 | 0.00 | 0.38 | 0.00 | 70 | 1005.5 |
| 20260506083603 | 18 | 107 | 6.4 | 12.9 | 0.00 | 0.38 | 0.00 | 68 | 1005.5 |
| 20260506083505 | 18 | 102 | 6.4 | 12.9 | 0.00 | 0.38 | 0.00 | 68 | 1005.4 |
| 20260506083403 | 18 | 98 | 6.4 | 12.9 | 0.00 | 0.38 | 0.00 | 70 | 1005.5 |
| 20260506083304 | 18 | 98 | 6.4 | 14.5 | 0.00 | 0.38 | 0.00 | 70 | 1005.5 |
| 20260506083204 | 18 | 106 | 6.4 | 14.5 | 0.00 | 0.38 | 0.00 | 70 | 1005.5 |
| 20260506083103 | 18 | 113 | 6.4 | 14.5 | 0.00 | 0.38 | 0.00 | 69 | 1005.5 |
| 20260506083005 | 18 | 122 | 6.4 | 14.5 | 0.00 | 0.38 | 0.00 | 73 | 1005.5 |
| 20260506082904 | 18 | 124 | 6.4 | 14.5 | 0.00 | 0.38 | 0.00 | 71 | 1005.4 |
| 20260506082803 | 18 | 121 | 6.4 | 14.5 | 0.00 | 0.38 | 0.00 | 73 | 1005.6 |
| 20260506082720 | 17 | 121 | 6.4 | 14.5 | 0.00 | 0.38 | 0.00 | 74 | 1005.6 |
| 20260506082703 | 17 | 120 | 6.4 | 14.5 | 0.00 | 0.38 | 0.00 | 74 | 1005.6 |
| 20260506082604 | 17 | 117 | 6.4 | 14.5 | 0.00 | 0.38 | 0.00 | 73 | 1005.6 |
| 20260506082405 | 17 | 118 | 6.4 | 14.5 | 0.00 | 0.38 | 0.00 | 71 | 1005.5 |
| 20260506082318 | 17 | 122 | 6.4 | 14.5 | 0.00 | 0.38 | 0.00 | 71 | 1005.5 |
| 20260506082305 | 17 | 120 | 6.4 | 14.5 | 0.00 | 0.38 | 0.00 | 71 | 1005.5 |
| 20260506082216 | 17 | 118 | 6.4 | 14.5 | 0.00 | 0.38 | 0.00 | 71 | 1005.5 |
| 20260506082205 | 17 | 119 | 6.4 | 14.5 | 0.00 | 0.38 | 0.00 | 71 | 1005.6 |
| 20260506081904 | 17 | 116 | 4.8 | 12.9 | 0.00 | 0.38 | 0.00 | 73 | 1005.5 |
| 20260506081804 | 17 | 119 | 4.8 | 17.7 | 0.00 | 0.38 | 0.00 | 72 | 1005.8 |
| 20260506081705 | 17 | 118 | 4.8 | 17.7 | 0.00 | 0.38 | 0.00 | 70 | 1005.5 |
| 20260506081604 | 17 | 116 | 6.4 | 17.7 | 0.00 | 0.38 | 0.00 | 70 | 1005.9 |
| 20260506081519 | 17 | 114 | 6.4 | 17.7 | 0.00 | 0.38 | 0.00 | 72 | 1005.9 |
| 20260506081503 | 17 | 114 | 6.4 | 17.7 | 0.00 | 0.38 | 0.00 | 72 | 1005.8 |
| 20260506081404 | 17 | 109 | 6.4 | 17.7 | 0.00 | 0.38 | 0.00 | 73 | 1005.8 |
| 20260506081203 | 17 | 97 | 8.0 | 17.7 | 0.00 | 0.38 | 0.00 | 73 | 1005.8 |
| 20260506081103 | 17 | 94 | 8.0 | 17.7 | 0.00 | 0.38 | 0.00 | 74 | 1005.6 |
| 20260506081003 | 17 | 92 | 8.0 | 17.7 | 0.00 | 0.38 | 0.00 | 76 | 1005.6 |
| 20260506080903 | 17 | 92 | 9.7 | 17.7 | 0.00 | 0.38 | 0.00 | 73 | 1005.9 |
| 20260506080804 | 17 | 89 | 9.7 | 17.7 | 0.00 | 0.38 | 0.00 | 76 | 1005.8 |
| 20260506080720 | 17 | 88 | 9.7 | 17.7 | 0.00 | 0.38 | 0.00 | 75 | 1005.8 |
| 20260506080703 | 17 | 87 | 9.7 | 17.7 | 0.00 | 0.38 | 0.00 | 75 | 1005.8 |
| 20260506080618 | 17 | 86 | 8.0 | 17.7 | 0.00 | 0.38 | 0.00 | 75 | 1005.8 |
| 20260506080603 | 17 | 85 | 8.0 | 17.7 | 0.00 | 0.38 | 0.00 | 74 | 1005.6 |
| 20260506080303 | 17 | 95 | 8.0 | 17.7 | 0.00 | 0.38 | 0.00 | 74 | 1005.6 |
| 20260506080204 | 16 | 97 | 6.4 | 17.7 | 0.00 | 0.38 | 0.00 | 74 | 1005.8 |
| 20260506080103 | 16 | 102 | 6.4 | 17.7 | 0.00 | 0.38 | 0.00 | 74 | 1005.9 |
| 20260506073503 | 15 | 72 | 8.0 | 17.7 | 0.00 | 0.38 | 0.00 | 83 | 1006.0 |
| 20260506073320 | 15 | 74 | 8.0 | 17.7 | 0.00 | 0.38 | 0.00 | 85 | 1006.0 |
| 20260506073304 | 15 | 74 | 8.0 | 17.7 | 0.00 | 0.38 | 0.00 | 83 | 1006.0 |
| 20260506073203 | 15 | 74 | 8.0 | 17.7 | 0.00 | 0.38 | 0.00 | 83 | 1005.9 |
| 20260506073003 | 15 | 73 | 8.0 | 17.7 | 0.00 | 0.38 | 0.00 | 82 | 1006.1 |
| 20260506072903 | 15 | 67 | 8.0 | 17.7 | 0.00 | 0.38 | 0.00 | 82 | 1006.1 |
| 20260506072804 | 15 | 66 | 8.0 | 17.7 | 0.00 | 0.38 | 0.00 | 83 | 1006.3 |
| 20260506072704 | 15 | 65 | 8.0 | 17.7 | 0.00 | 0.38 | 0.00 | 83 | 1006.1 |
| 20260506072603 | 15 | 67 | 8.0 | 17.7 | 0.00 | 0.38 | 0.00 | 83 | 1006.1 |
| 20260506072503 | 15 | 65 | 8.0 | 17.7 | 0.00 | 0.38 | 0.00 | 83 | 1006.0 |
| 20260506072403 | 15 | 61 | 8.0 | 17.7 | 0.00 | 0.38 | 0.00 | 84 | 1005.9 |
| 20260506072306 | 14 | 60 | 8.0 | 16.1 | 0.00 | 0.38 | 0.00 | 84 | 1006.1 |
| 20260506072203 | 14 | 66 | 6.4 | 16.1 | 0.00 | 0.38 | 0.00 | 84 | 1006.1 |
| 20260506072103 | 14 | 70 | 6.4 | 17.7 | 0.00 | 0.38 | 0.00 | 83 | 1006.2 |
| 20260506072004 | 14 | 72 | 8.0 | 17.7 | 0.00 | 0.38 | 0.00 | 83 | 1006.1 |
| 20260506071904 | 14 | 79 | 8.0 | 17.7 | 0.00 | 0.38 | 0.00 | 83 | 1006.2 |
| 20260506071818 | 14 | 79 | 8.0 | 17.7 | 0.00 | 0.38 | 0.00 | 83 | 1006.2 |
| 20260506071805 | 14 | 79 | 8.0 | 17.7 | 0.00 | 0.38 | 0.00 | 83 | 1006.2 |
| 20260506071704 | 14 | 83 | 8.0 | 17.7 | 0.00 | 0.38 | 0.00 | 84 | 1006.2 |
| 20260506071504 | 14 | 84 | 8.0 | 17.7 | 0.00 | 0.38 | 0.00 | 85 | 1006.4 |
| 20260506071403 | 14 | 87 | 8.0 | 17.7 | 0.00 | 0.38 | 0.00 | 85 | 1006.3 |
| 20260506071304 | 14 | 86 | 8.0 | 17.7 | 0.00 | 0.38 | 0.00 | 85 | 1006.4 |
| 20260506071203 | 14 | 82 | 9.7 | 17.7 | 0.00 | 0.38 | 0.00 | 85 | 1006.4 |
| 20260506071103 | 14 | 80 | 9.7 | 17.7 | 0.00 | 0.38 | 0.00 | 85 | 1006.5 |
| 20260506071004 | 14 | 79 | 8.0 | 16.1 | 0.00 | 0.38 | 0.00 | 85 | 1006.3 |
| 20260506070904 | 13 | 77 | 8.0 | 16.1 | 0.00 | 0.38 | 0.00 | 86 | 1006.2 |
| 20260506070805 | 13 | 76 | 6.4 | 16.1 | 0.00 | 0.38 | 0.00 | 86 | 1006.5 |
| 20260506070704 | 13 | 74 | 6.4 | 16.1 | 0.00 | 0.38 | 0.00 | 86 | 1006.3 |
| 20260506070503 | 13 | 84 | 6.4 | 17.7 | 0.00 | 0.38 | 0.00 | 85 | 1006.2 |
| 20260506070404 | 13 | 86 | 6.4 | 17.7 | 0.00 | 0.38 | 0.00 | 86 | 1006.3 |
| 20260506070304 | 13 | 87 | 6.4 | 17.7 | 0.00 | 0.38 | 0.00 | 86 | 1006.5 |
| 20260506070204 | 13 | 85 | 6.4 | 17.7 | 0.00 | 0.38 | 0.00 | 87 | 1006.4 |
| 20260506070105 | 13 | 84 | 6.4 | 17.7 | 0.00 | 0.38 | 0.00 | 86 | 1006.5 |
| 20260506062503 | 12 | 83 | 9.7 | 24.1 | 0.00 | 0.38 | 0.00 | 89 | 1006.4 |
| 20260506062403 | 12 | 86 | 8.0 | 24.1 | 0.00 | 0.38 | 0.00 | 89 | 1006.5 |
| 20260506062305 | 12 | 86 | 8.0 | 24.1 | 0.00 | 0.38 | 0.00 | 89 | 1006.5 |
| 20260506062203 | 12 | 85 | 8.0 | 24.1 | 0.00 | 0.38 | 0.00 | 88 | 1006.5 |
| 20260506062003 | 12 | 89 | 8.0 | 16.1 | 0.00 | 0.38 | 0.00 | 89 | 1006.5 |
| 20260506061904 | 12 | 87 | 8.0 | 16.1 | 0.00 | 0.38 | 0.00 | 89 | 1006.4 |
| 20260506061808 | 12 | 89 | 8.0 | 16.1 | 0.00 | 0.38 | 0.00 | 89 | 1006.5 |
| 20260506061705 | 12 | 90 | 6.4 | 16.1 | 0.00 | 0.38 | 0.00 | 89 | 1006.7 |
| 20260506061619 | 12 | 91 | 6.4 | 16.1 | 0.00 | 0.38 | 0.00 | 90 | 1006.7 |
| 20260506061604 | 12 | 90 | 6.4 | 16.1 | 0.00 | 0.38 | 0.00 | 90 | 1006.5 |
| 20260506061504 | 12 | 89 | 6.4 | 16.1 | 0.00 | 0.38 | 0.00 | 91 | 1006.5 |
| 20260506061421 | 12 | 88 | 6.4 | 16.1 | 0.00 | 0.38 | 0.00 | 91 | 1006.5 |
| 20260506061303 | 12 | 90 | 6.4 | 16.1 | 0.00 | 0.38 | 0.00 | 91 | 1006.5 |
| 20260506061218 | 12 | 89 | 6.4 | 16.1 | 0.00 | 0.38 | 0.00 | 91 | 1006.6 |
| 20260506061105 | 12 | 94 | 6.4 | 16.1 | 0.00 | 0.38 | 0.00 | 91 | 1006.4 |
| 20260506060904 | 12 | 96 | 6.4 | 16.1 | 0.00 | 0.38 | 0.00 | 91 | 1006.6 |
| 20260506060805 | 12 | 94 | 6.4 | 16.1 | 0.00 | 0.38 | 0.00 | 91 | 1006.6 |
| 20260506060703 | 12 | 95 | 8.0 | 16.1 | 0.00 | 0.38 | 0.00 | 90 | 1006.5 |
| 20260506060604 | 12 | 96 | 8.0 | 16.1 | 0.00 | 0.38 | 0.00 | 90 | 1006.6 |
| 20260506060504 | 12 | 100 | 8.0 | 16.1 | 0.00 | 0.38 | 0.00 | 90 | 1006.6 |
| 20260506060404 | 12 | 101 | 8.0 | 16.1 | 0.00 | 0.38 | 0.00 | 91 | 1006.7 |
| 20260506060304 | 12 | 97 | 8.0 | 16.1 | 0.00 | 0.38 | 0.00 | 90 | 1006.5 |
| 20260506060219 | 12 | 97 | 8.0 | 16.1 | 0.00 | 0.38 | 0.00 | 92 | 1006.5 |
| 20260506060204 | 12 | 98 | 8.0 | 16.1 | 0.00 | 0.38 | 0.00 | 92 | 1006.5 |
| 20260506051416 | 11 | 91 | 8.0 | 17.7 | 0.00 | 0.38 | 0.00 | 99 | 1006.6 |
| 20260506051404 | 11 | 91 | 8.0 | 17.7 | 0.00 | 0.38 | 0.00 | 99 | 1006.6 |
| 20260506051304 | 11 | 90 | 6.4 | 16.1 | 0.00 | 0.38 | 0.00 | 99 | 1006.8 |
| 20260506051103 | 11 | 89 | 6.4 | 16.1 | 0.00 | 0.38 | 0.00 | 99 | 1006.6 |
| 20260506051005 | 10 | 91 | 8.0 | 16.1 | 0.00 | 0.38 | 0.00 | 99 | 1006.6 |
| 20260506050904 | 10 | 92 | 8.0 | 16.1 | 0.00 | 0.38 | 0.00 | 99 | 1006.8 |
| 20260506050803 | 10 | 92 | 6.4 | 16.1 | 0.00 | 0.38 | 0.00 | 99 | 1006.6 |
| 20260506050718 | 10 | 93 | 6.4 | 16.1 | 0.00 | 0.38 | 0.00 | 99 | 1006.6 |
| 20260506050706 | 10 | 94 | 6.4 | 16.1 | 0.00 | 0.38 | 0.00 | 99 | 1006.6 |
| 20260506050603 | 10 | 97 | 6.4 | 14.5 | 0.00 | 0.38 | 0.00 | 99 | 1006.5 |
| 20260506050404 | 10 | 103 | 4.8 | 14.5 | 0.00 | 0.38 | 0.00 | 99 | 1006.8 |
| 20260506050304 | 10 | 105 | 4.8 | 14.5 | 0.00 | 0.38 | 0.00 | 99 | 1006.8 |
| 20260506050203 | 10 | 103 | 4.8 | 14.5 | 0.00 | 0.38 | 0.00 | 99 | 1006.8 |
| 20260506050103 | 10 | 107 | 4.8 | 14.5 | 0.00 | 0.38 | 0.00 | 99 | 1006.8 |
| 20260506045104 | 10 | 97 | 4.8 | 12.9 | 0.00 | 0.38 | 0.00 | 99 | 1006.6 |
| 20260506044805 | 10 | 89 | 3.2 | 12.9 | 0.00 | 0.38 | 0.00 | 99 | 1006.7 |
| 20260506044705 | 10 | 84 | 3.2 | 9.7 | 0.00 | 0.38 | 0.00 | 99 | 1006.6 |
| 20260506044603 | 10 | 85 | 3.2 | 9.7 | 0.00 | 0.38 | 0.00 | 99 | 1006.5 |
| 20260506044505 | 10 | 82 | 3.2 | 9.7 | 0.00 | 0.38 | 0.00 | 99 | 1006.6 |
| 20260506044403 | 9 | 78 | 1.6 | 9.7 | 0.00 | 0.38 | 0.00 | 99 | 1006.5 |
| 20260506044316 | 9 | 75 | 1.6 | 9.7 | 0.00 | 0.38 | 0.00 | 99 | 1006.6 |
| 20260506044305 | 9 | 74 | 1.6 | 9.7 | 0.00 | 0.38 | 0.00 | 99 | 1006.6 |
| 20260506044219 | 9 | 71 | 1.6 | 9.7 | 0.00 | 0.38 | 0.00 | 99 | 1006.6 |
| 20260506044204 | 9 | 72 | 1.6 | 9.7 | 0.00 | 0.38 | 0.00 | 99 | 1006.6 |
| 20260506043903 | 9 | 85 | 1.6 | 4.8 | 0.00 | 0.38 | 0.00 | 99 | 1006.5 |
| 20260506043817 | 9 | 82 | 1.6 | 4.8 | 0.00 | 0.38 | 0.00 | 99 | 1006.5 |
| 20260506043806 | 9 | 84 | 1.6 | 4.8 | 0.00 | 0.38 | 0.00 | 99 | 1006.6 |
| 20260506043703 | 9 | 91 | 1.6 | 4.8 | 0.00 | 0.38 | 0.00 | 99 | 1006.7 |
| 20260506043505 | 9 | 80 | 1.6 | 3.2 | 0.00 | 0.38 | 0.00 | 99 | 1006.7 |
| 20260506043404 | 8 | 76 | 1.6 | 4.8 | 0.00 | 0.38 | 0.00 | 99 | 1006.7 |
| 20260506043318 | 8 | 75 | 1.6 | 4.8 | 0.00 | 0.38 | 0.00 | 99 | 1006.5 |
| 20260506043305 | 8 | 74 | 1.6 | 4.8 | 0.00 | 0.38 | 0.00 | 99 | 1006.5 |
| 20260506043203 | 8 | 71 | 1.6 | 4.8 | 0.00 | 0.38 | 0.00 | 99 | 1006.5 |
| 20260506043003 | 8 | 65 | 1.6 | 4.8 | 0.00 | 0.38 | 0.00 | 99 | 1006.6 |
| 20260506042903 | 8 | 59 | 1.6 | 4.8 | 0.00 | 0.38 | 0.00 | 99 | 1006.7 |
| 20260506042804 | 8 | 58 | 1.6 | 4.8 | 0.00 | 0.38 | 0.00 | 99 | 1006.7 |
| 20260506042703 | 8 | 54 | 1.6 | 4.8 | 0.00 | 0.38 | 0.00 | 99 | 1006.9 |
| 20260506042603 | 8 | 60 | 0.0 | 4.8 | 0.00 | 0.38 | 0.00 | 99 | 1006.7 |
| 20260506042503 | 8 | 65 | 0.0 | 4.8 | 0.00 | 0.38 | 0.00 | 99 | 1006.9 |
| 20260506042404 | 8 | 67 | 0.0 | 4.8 | 0.00 | 0.38 | 0.00 | 99 | 1006.9 |
| 20260506042316 | 8 | 68 | 0.0 | 4.8 | 0.00 | 0.38 | 0.00 | 99 | 1006.9 |
| 20260506042305 | 8 | 69 | 0.0 | 4.8 | 0.00 | 0.38 | 0.00 | 99 | 1006.9 |
| 20260506042204 | 8 | 76 | 0.0 | 3.2 | 0.00 | 0.38 | 0.00 | 99 | 1007.1 |
| 20260506042003 | 8 | 0 | 0.0 | 1.6 | 0.00 | 0.38 | 0.00 | 99 | 1007.2 |
| 20260506041903 | 8 | 0 | 0.0 | 1.6 | 0.00 | 0.38 | 0.00 | 99 | 1007.2 |
| 20260506041804 | 8 | 73 | 0.0 | 1.6 | 0.00 | 0.38 | 0.00 | 99 | 1007.4 |
| 20260506041705 | 8 | 68 | 0.0 | 1.6 | 0.00 | 0.38 | 0.00 | 99 | 1007.1 |
| 20260506041603 | 8 | 67 | 0.0 | 1.6 | 0.00 | 0.38 | 0.00 | 99 | 1007.2 |
| 20260506041503 | 8 | 64 | 0.0 | 1.6 | 0.00 | 0.38 | 0.00 | 99 | 1007.1 |
| 20260506041419 | 7 | 62 | 0.0 | 3.2 | 0.00 | 0.38 | 0.00 | 99 | 1007.1 |
| 20260506041403 | 7 | 61 | 0.0 | 3.2 | 0.00 | 0.38 | 0.00 | 99 | 1007.1 |
| 20260506041304 | 7 | 62 | 0.0 | 3.2 | 0.00 | 0.38 | 0.00 | 99 | 1007.3 |
| 20260506041104 | 7 | 67 | 0.0 | 3.2 | 0.00 | 0.38 | 0.00 | 99 | 1007.3 |
| 20260506041003 | 7 | 67 | 0.0 | 3.2 | 0.00 | 0.38 | 0.00 | 99 | 1007.1 |
| 20260506040915 | 7 | 67 | 0.0 | 3.2 | 0.00 | 0.38 | 0.00 | 99 | 1007.2 |
| 20260506040903 | 7 | 68 | 0.0 | 3.2 | 0.00 | 0.38 | 0.00 | 99 | 1007.2 |
| 20260506040718 | 7 | 78 | 0.0 | 3.2 | 0.00 | 0.38 | 0.00 | 99 | 1007.2 |
| 20260506040705 | 7 | 79 | 0.0 | 3.2 | 0.00 | 0.38 | 0.00 | 99 | 1007.2 |
| 20260506040603 | 7 | 84 | 0.0 | 3.2 | 0.00 | 0.38 | 0.00 | 99 | 1007.1 |
| 20260506040404 | 7 | 98 | 0.0 | 3.2 | 0.00 | 0.38 | 0.00 | 99 | 1007.2 |
| 20260506040320 | 7 | 106 | 0.0 | 3.2 | 0.00 | 0.38 | 0.00 | 99 | 1007.2 |
| 20260506040303 | 7 | 111 | 0.0 | 3.2 | 0.00 | 0.38 | 0.00 | 99 | 1006.9 |
| 20260506040203 | 7 | 113 | 0.0 | 1.6 | 0.00 | 0.38 | 0.00 | 99 | 1007.2 |
| 20260506040004 | 7 | 99 | 0.0 | 1.6 | 0.00 | 0.38 | 0.00 | 99 | 1007.1 |
| 20260506035903 | 7 | 94 | 0.0 | 1.6 | 0.00 | 0.38 | 0.00 | 99 | 1007.1 |
| 20260506035803 | 7 | 93 | 0.0 | 1.6 | 0.00 | 0.38 | 0.00 | 99 | 1006.9 |
| 20260506035716 | 7 | 91 | 0.0 | 1.6 | 0.00 | 0.38 | 0.00 | 99 | 1007.1 |
| 20260506035704 | 7 | 90 | 0.0 | 1.6 | 0.00 | 0.38 | 0.00 | 99 | 1007.1 |
| 20260506035604 | 7 | 85 | 0.0 | 1.6 | 0.00 | 0.38 | 0.00 | 99 | 1007.2 |